Time,TemperatureF,DewpointF,PressureIn,WindDirection,WindDirectionDegrees,WindSpeedMPH,WindSpeedGustMPH,Humidity,HourlyPrecipIn,Conditions,Clouds,dailyrainin,SoftwareType,DateUTC
2013-03-10 00:00:00,61.6,52.5,30.17,ENE,63,3.0,5.0,72,0.00,,---,0.00,VWS V14.01,2013-03-10 05:00:00,
2013-03-10 00:05:00,61.5,52.4,30.16,ESE,112,1.0,4.0,72,0.00,,---,0.00,VWS V14.01,2013-03-10 05:05:00,
2013-03-10 00:06:00,61.4,52.7,30.17,ENE,65,1.0,2.0,73,0.00,,---,0.00,VWS V14.01,2013-03-10 05:06:00,
2013-03-10 00:07:00,61.4,52.7,30.16,ENE,65,2.0,2.0,73,0.00,,---,0.00,VWS V14.01,2013-03-10 05:07:00,
2013-03-10 00:10:00,61.4,52.7,30.17,ENE,65,3.0,4.0,73,0.00,,---,0.00,VWS V14.01,2013-03-10 05:10:00,
2013-03-10 00:11:00,61.4,52.7,30.17,East,98,1.0,4.0,73,0.00,,---,0.00,VWS V14.01,2013-03-10 05:11:00,
2013-03-10 00:12:00,61.3,52.6,30.16,SE,127,2.0,6.0,73,0.00,,---,0.00,VWS V14.01,2013-03-10 05:12:00,
2013-03-10 00:15:00,61.3,52.6,30.16,ESE,103,2.0,6.0,73,0.00,,---,0.00,VWS V14.01,2013-03-10 05:15:00,
2013-03-10 00:16:00,61.3,52.6,30.16,East,89,1.0,1.0,73,0.00,,---,0.00,VWS V14.01,2013-03-10 05:16:00,
2013-03-10 00:18:00,61.3,52.6,30.16,ENE,59,1.0,2.0,73,0.00,,---,0.00,VWS V14.01,2013-03-10 05:18:00,
2013-03-10 00:20:00,61.2,52.5,30.17,SE,135,1.0,2.0,73,0.00,,---,0.00,VWS V14.01,2013-03-10 05:20:00,
2013-03-10 00:21:00,61.2,52.9,30.17,ENE,69,2.0,2.0,74,0.00,,---,0.00,VWS V14.01,2013-03-10 05:21:00,
2013-03-10 00:24:00,61.1,52.8,30.16,ESE,113,2.0,4.0,74,0.00,,---,0.00,VWS V14.01,2013-03-10 05:24:00,
2013-03-10 00:25:00,61.1,52.8,30.16,ESE,109,1.0,4.0,74,0.00,,---,0.00,VWS V14.01,2013-03-10 05:25:00,
2013-03-10 00:26:00,61.1,52.8,30.16,ESE,109,0.0,1.0,74,0.00,,---,0.00,VWS V14.01,2013-03-10 05:26:00,
2013-03-10 00:29:00,61.0,53.0,30.16,ENE,72,1.0,4.0,75,0.00,,---,0.00,VWS V14.01,2013-03-10 05:29:00,
2013-03-10 00:31:00,61.0,53.0,30.16,ENE,63,1.0,2.0,75,0.00,,---,0.00,VWS V14.01,2013-03-10 05:31:00,
2013-03-10 00:32:00,60.9,52.9,30.16,NE,49,1.0,4.0,75,0.00,,---,0.00,VWS V14.01,2013-03-10 05:32:00,
2013-03-10 00:35:00,60.9,53.3,30.16,NNE,27,3.0,4.0,76,0.00,,---,0.00,VWS V14.01,2013-03-10 05:35:00,
2013-03-10 00:36:00,60.9,53.3,30.16,NE,52,0.0,1.0,76,0.00,,---,0.00,VWS V14.01,2013-03-10 05:36:00,
2013-03-10 00:37:00,60.9,53.3,30.16,NE,52,1.0,1.0,76,0.00,,---,0.00,VWS V14.01,2013-03-10 05:37:00,
2013-03-10 00:40:00,60.7,53.5,30.16,NE,52,1.0,2.0,77,0.00,,---,0.00,VWS V14.01,2013-03-10 05:40:00,
2013-03-10 00:41:00,60.7,53.5,30.16,NE,53,0.0,1.0,77,0.00,,---,0.00,VWS V14.01,2013-03-10 05:41:00,
2013-03-10 00:42:00,60.7,53.5,30.16,NE,53,0.0,1.0,77,0.00,,---,0.00,VWS V14.01,2013-03-10 05:42:00,
2013-03-10 00:46:00,60.5,52.9,30.16,SE,128,3.0,3.0,76,0.00,,---,0.00,VWS V14.01,2013-03-10 05:46:00,
2013-03-10 00:47:00,60.5,52.9,30.16,East,80,3.0,3.0,76,0.00,,---,0.00,VWS V14.01,2013-03-10 05:47:00,
2013-03-10 00:48:00,60.5,52.9,30.16,NE,51,2.0,4.0,76,0.00,,---,0.00,VWS V14.01,2013-03-10 05:48:00,
2013-03-10 00:52:00,60.5,52.9,30.16,ENE,70,2.0,7.0,76,0.00,,---,0.00,VWS V14.01,2013-03-10 05:52:00,
2013-03-10 00:53:00,60.5,52.9,30.15,ENE,75,2.0,7.0,76,0.00,,---,0.00,VWS V14.01,2013-03-10 05:53:00,
2013-03-10 00:57:00,60.6,53.0,30.15,ENE,78,2.0,3.0,76,0.00,,---,0.00,VWS V14.01,2013-03-10 05:57:00,
2013-03-10 00:58:00,60.5,52.9,30.15,ESE,104,2.0,3.0,76,0.00,,---,0.00,VWS V14.01,2013-03-10 05:58:00,
2013-03-10 00:59:00,60.6,53.0,30.15,NE,46,1.0,3.0,76,0.00,,---,0.00,VWS V14.01,2013-03-10 05:59:00,
2013-03-10 01:02:00,60.6,53.0,30.15,ENE,57,2.0,5.0,76,0.00,,---,0.00,VWS V14.01,2013-03-10 06:02:00,
2013-03-10 01:03:00,60.5,52.9,30.15,ESE,118,4.0,5.0,76,0.00,,---,0.00,VWS V14.01,2013-03-10 06:03:00,
2013-03-10 01:04:00,60.6,53.0,30.15,ENE,68,1.0,5.0,76,0.00,,---,0.00,VWS V14.01,2013-03-10 06:04:00,
2013-03-10 01:05:00,60.6,53.0,30.15,ENE,68,0.0,5.0,76,0.00,,---,0.00,VWS V14.01,2013-03-10 06:05:00,
2013-03-10 01:07:00,60.6,53.4,30.15,East,89,1.0,4.0,77,0.00,,---,0.00,VWS V14.01,2013-03-10 06:07:00,
2013-03-10 01:10:00,60.5,53.3,30.14,NE,35,3.0,4.0,77,0.00,,---,0.00,VWS V14.01,2013-03-10 06:10:00,
2013-03-10 01:11:00,60.5,53.3,30.14,ENE,69,2.0,4.0,77,0.00,,---,0.00,VWS V14.01,2013-03-10 06:11:00,
2013-03-10 01:13:00,60.5,53.3,30.14,NE,51,1.0,4.0,77,0.00,,---,0.00,VWS V14.01,2013-03-10 06:13:00,
2013-03-10 01:15:00,60.5,53.3,30.15,NE,49,2.0,4.0,77,0.00,,---,0.00,VWS V14.01,2013-03-10 06:15:00,
2013-03-10 01:16:00,60.5,53.3,30.15,NE,49,1.0,4.0,77,0.00,,---,0.00,VWS V14.01,2013-03-10 06:16:00,
2013-03-10 01:18:00,60.5,53.3,30.15,NE,36,1.0,3.0,77,0.00,,---,0.00,VWS V14.01,2013-03-10 06:18:00,
2013-03-10 01:21:00,60.5,53.3,30.15,NE,37,3.0,3.0,77,0.00,,---,0.00,VWS V14.01,2013-03-10 06:21:00,
2013-03-10 01:22:00,60.5,53.3,30.15,ENE,71,5.0,5.0,77,0.00,,---,0.00,VWS V14.01,2013-03-10 06:22:00,
2013-03-10 01:25:00,60.5,52.9,30.15,ESE,115,1.0,6.0,76,0.00,,---,0.00,VWS V14.01,2013-03-10 06:25:00,
2013-03-10 01:26:00,60.5,52.9,30.15,East,89,3.0,5.0,76,0.00,,---,0.00,VWS V14.01,2013-03-10 06:26:00,
2013-03-10 01:27:00,60.4,52.8,30.15,East,81,3.0,5.0,76,0.00,,---,0.00,VWS V14.01,2013-03-10 06:27:00,
2013-03-10 01:30:00,60.5,53.3,30.15,ENE,65,2.0,5.0,77,0.00,,---,0.00,VWS V14.01,2013-03-10 06:30:00,
2013-03-10 01:31:00,60.5,53.3,30.15,East,86,2.0,3.0,77,0.00,,---,0.00,VWS V14.01,2013-03-10 06:31:00,
2013-03-10 01:33:00,60.5,53.3,30.15,ENE,69,1.0,5.0,77,0.00,,---,0.00,VWS V14.01,2013-03-10 06:33:00,
2013-03-10 01:36:00,60.4,53.2,30.15,East,84,1.0,5.0,77,0.00,,---,0.00,VWS V14.01,2013-03-10 06:36:00,
2013-03-10 01:37:00,60.4,53.2,30.15,ENE,63,2.0,5.0,77,0.00,,---,0.00,VWS V14.01,2013-03-10 06:37:00,
2013-03-10 01:39:00,60.4,53.5,30.14,NE,55,1.0,5.0,78,0.00,,---,0.00,VWS V14.01,2013-03-10 06:39:00,
2013-03-10 01:40:00,60.4,53.5,30.14,NE,55,1.0,5.0,78,0.00,,---,0.00,VWS V14.01,2013-03-10 06:40:00,
2013-03-10 01:41:00,60.4,53.5,30.14,NE,51,2.0,2.0,78,0.00,,---,0.00,VWS V14.01,2013-03-10 06:41:00,
2013-03-10 01:42:00,60.4,53.5,30.14,NE,51,2.0,2.0,78,0.00,,---,0.00,VWS V14.01,2013-03-10 06:42:00,
2013-03-10 01:45:00,60.3,53.4,30.14,NE,51,2.0,2.0,78,0.00,,---,0.00,VWS V14.01,2013-03-10 06:45:00,
2013-03-10 01:46:00,60.2,53.3,30.14,NE,51,2.0,2.0,78,0.00,,---,0.00,VWS V14.01,2013-03-10 06:46:00,
2013-03-10 01:47:00,60.2,53.7,30.14,NE,51,1.0,3.0,79,0.00,,---,0.00,VWS V14.01,2013-03-10 06:47:00,
2013-03-10 01:49:00,60.2,53.7,30.14,NE,39,1.0,3.0,79,0.00,,---,0.00,VWS V14.01,2013-03-10 06:49:00,
2013-03-10 01:50:00,60.1,53.6,30.14,NNE,23,1.0,3.0,79,0.00,,---,0.00,VWS V14.01,2013-03-10 06:50:00,
2013-03-10 01:51:00,60.1,53.6,30.14,NNE,27,1.0,2.0,79,0.00,,---,0.00,VWS V14.01,2013-03-10 06:51:00,
2013-03-10 01:54:00,60.0,53.5,30.14,NNE,27,1.0,2.0,79,0.00,,---,0.00,VWS V14.01,2013-03-10 06:54:00,
2013-03-10 01:55:00,60.0,53.5,30.14,NNE,27,1.0,2.0,79,0.00,,---,0.00,VWS V14.01,2013-03-10 06:55:00,
2013-03-10 01:57:00,60.0,53.5,30.14,NNE,27,1.0,2.0,79,0.00,,---,0.00,VWS V14.01,2013-03-10 06:57:00,
2013-03-10 01:59:00,59.9,53.4,30.14,NNE,27,1.0,2.0,79,0.00,,---,0.00,VWS V14.01,2013-03-10 06:59:00,
2013-03-10 03:02:00,59.8,53.3,30.14,NNE,28,1.0,1.0,79,0.00,,---,0.00,VWS V14.01,2013-03-10 07:02:00,
2013-03-10 03:03:00,59.8,53.3,30.14,NNE,28,1.0,1.0,79,0.00,,---,0.00,VWS V14.01,2013-03-10 07:03:00,
2013-03-10 03:04:00,59.7,53.2,30.14,NNE,28,2.0,2.0,79,0.00,,---,0.00,VWS V14.01,2013-03-10 07:04:00,
2013-03-10 03:06:00,59.7,53.2,30.14,NNE,28,0.0,2.0,79,0.00,,---,0.00,VWS V14.01,2013-03-10 07:06:00,
2013-03-10 03:07:00,59.6,53.4,30.14,NNE,28,1.0,1.0,80,0.00,,---,0.00,VWS V14.01,2013-03-10 07:07:00,
2013-03-10 03:09:00,59.5,53.3,30.14,NNE,28,1.0,1.0,80,0.00,,---,0.00,VWS V14.01,2013-03-10 07:09:00,
2013-03-10 03:10:00,59.5,53.3,30.14,NNE,28,1.0,1.0,80,0.00,,---,0.00,VWS V14.01,2013-03-10 07:10:00,
2013-03-10 03:11:00,59.5,53.3,30.14,NNE,28,1.0,1.0,80,0.00,,---,0.00,VWS V14.01,2013-03-10 07:11:00,
2013-03-10 03:12:00,59.4,53.2,30.14,NNE,28,0.0,1.0,80,0.00,,---,0.00,VWS V14.01,2013-03-10 07:12:00,
2013-03-10 03:15:00,59.3,53.1,30.14,SE,125,1.0,2.0,80,0.00,,---,0.00,VWS V14.01,2013-03-10 07:15:00,
2013-03-10 03:16:00,59.3,53.1,30.14,SE,125,0.0,2.0,80,0.00,,---,0.00,VWS V14.01,2013-03-10 07:16:00,
2013-03-10 03:18:00,59.2,53.0,30.15,ESE,119,1.0,3.0,80,0.00,,---,0.00,VWS V14.01,2013-03-10 07:18:00,
2013-03-10 03:21:00,59.2,53.4,30.15,ESE,119,1.0,3.0,81,0.00,,---,0.00,VWS V14.01,2013-03-10 07:21:00,
2013-03-10 03:22:00,59.1,52.9,30.15,ESE,119,0.0,1.0,80,0.00,,---,0.00,VWS V14.01,2013-03-10 07:22:00,
2013-03-10 03:23:00,59.1,53.3,30.15,ESE,119,1.0,1.0,81,0.00,,---,0.00,VWS V14.01,2013-03-10 07:23:00,
2013-03-10 03:26:00,59.0,53.2,30.15,ESE,119,1.0,1.0,81,0.00,,---,0.00,VWS V14.01,2013-03-10 07:26:00,
2013-03-10 03:27:00,59.0,53.2,30.15,ESE,119,0.0,1.0,81,0.00,,---,0.00,VWS V14.01,2013-03-10 07:27:00,
2013-03-10 03:28:00,58.9,53.1,30.14,ESE,119,1.0,1.0,81,0.00,,---,0.00,VWS V14.01,2013-03-10 07:28:00,
2013-03-10 03:30:00,58.9,53.1,30.14,ESE,116,0.0,2.0,81,0.00,,---,0.00,VWS V14.01,2013-03-10 07:30:00,
2013-03-10 03:31:00,58.9,53.4,30.14,ESE,116,1.0,1.0,82,0.00,,---,0.00,VWS V14.01,2013-03-10 07:31:00,
2013-03-10 03:32:00,58.9,53.4,30.14,East,92,2.0,3.0,82,0.00,,---,0.00,VWS V14.01,2013-03-10 07:32:00,
2013-03-10 03:35:00,58.9,53.4,30.14,NE,51,3.0,3.0,82,0.00,,---,0.00,VWS V14.01,2013-03-10 07:35:00,
2013-03-10 03:38:00,58.9,53.4,30.14,ENE,75,0.0,1.0,82,0.00,,---,0.00,VWS V14.01,2013-03-10 07:38:00,
2013-03-10 03:40:00,58.9,53.4,30.14,NE,56,0.0,2.0,82,0.00,,---,0.00,VWS V14.01,2013-03-10 07:40:00,
2013-03-10 03:43:00,58.9,53.8,30.14,ENE,57,1.0,2.0,83,0.00,,---,0.00,VWS V14.01,2013-03-10 07:43:00,
2013-03-10 03:44:00,59.0,53.8,30.14,East,82,2.0,3.0,83,0.00,,---,0.00,VWS V14.01,2013-03-10 07:44:00,
2013-03-10 03:46:00,59.0,53.8,30.13,ENE,73,2.0,3.0,83,0.00,,---,0.00,VWS V14.01,2013-03-10 07:46:00,
2013-03-10 03:47:00,59.0,53.8,30.13,NE,36,2.0,4.0,83,0.00,,---,0.00,VWS V14.01,2013-03-10 07:47:00,
2013-03-10 03:48:00,59.0,53.8,30.12,NE,37,2.0,4.0,83,0.00,,---,0.00,VWS V14.01,2013-03-10 07:48:00,
2013-03-10 03:50:00,59.0,53.8,30.12,NE,42,3.0,4.0,83,0.00,,---,0.00,VWS V14.01,2013-03-10 07:50:00,
2013-03-10 03:51:00,59.1,54.0,30.12,NE,42,2.0,2.0,83,0.00,,---,0.00,VWS V14.01,2013-03-10 07:51:00,
2013-03-10 03:54:00,59.1,54.0,30.12,NE,46,1.0,3.0,83,0.00,,---,0.00,VWS V14.01,2013-03-10 07:54:00,
2013-03-10 03:56:00,59.1,54.0,30.12,NE,44,2.0,2.0,83,0.00,,---,0.00,VWS V14.01,2013-03-10 07:56:00,
2013-03-10 03:57:00,59.1,54.0,30.12,NE,44,0.0,3.0,83,0.00,,---,0.00,VWS V14.01,2013-03-10 07:57:00,
2013-03-10 03:59:00,59.1,54.0,30.13,NE,44,1.0,3.0,83,0.00,,---,0.00,VWS V14.01,2013-03-10 07:59:00,
2013-03-10 04:01:00,59.1,54.0,30.13,ENE,65,1.0,1.0,83,0.00,,---,0.00,VWS V14.01,2013-03-10 08:01:00,
2013-03-10 04:03:00,59.0,53.8,30.13,NE,53,1.0,3.0,83,0.00,,---,0.00,VWS V14.01,2013-03-10 08:03:00,
2013-03-10 04:05:00,59.0,54.2,30.13,NE,53,2.0,3.0,84,0.00,,---,0.00,VWS V14.01,2013-03-10 08:05:00,
2013-03-10 04:06:00,59.0,54.2,30.12,NE,53,1.0,1.0,84,0.00,,---,0.00,VWS V14.01,2013-03-10 08:06:00,
2013-03-10 04:07:00,59.0,54.2,30.12,NE,53,1.0,1.0,84,0.00,,---,0.00,VWS V14.01,2013-03-10 08:07:00,
2013-03-10 04:08:00,58.9,54.1,30.12,NE,53,1.0,2.0,84,0.00,,---,0.00,VWS V14.01,2013-03-10 08:08:00,
2013-03-10 04:11:00,58.9,54.1,30.12,NE,53,2.0,2.0,84,0.00,,---,0.00,VWS V14.01,2013-03-10 08:11:00,
2013-03-10 04:12:00,58.8,54.0,30.12,NE,53,1.0,2.0,84,0.00,,---,0.00,VWS V14.01,2013-03-10 08:12:00,
2013-03-10 04:14:00,58.8,54.0,30.12,NE,51,2.0,3.0,84,0.00,,---,0.00,VWS V14.01,2013-03-10 08:14:00,
2013-03-10 04:16:00,58.7,53.9,30.12,NE,51,1.0,1.0,84,0.00,,---,0.00,VWS V14.01,2013-03-10 08:16:00,
2013-03-10 04:17:00,58.7,53.9,30.12,NE,51,2.0,2.0,84,0.00,,---,0.00,VWS V14.01,2013-03-10 08:17:00,
2013-03-10 04:20:00,58.6,54.1,30.12,ENE,75,2.0,3.0,85,0.00,,---,0.00,VWS V14.01,2013-03-10 08:20:00,
2013-03-10 04:22:00,58.6,54.1,30.12,ENE,75,1.0,2.0,85,0.00,,---,0.00,VWS V14.01,2013-03-10 08:22:00,
2013-03-10 04:23:00,58.6,54.1,30.12,ENE,75,0.0,2.0,85,0.00,,---,0.00,VWS V14.01,2013-03-10 08:23:00,
2013-03-10 04:24:00,58.6,54.1,30.12,ENE,75,1.0,2.0,85,0.00,,---,0.00,VWS V14.01,2013-03-10 08:24:00,
2013-03-10 04:25:00,58.5,54.0,30.12,ENE,75,2.0,2.0,85,0.00,,---,0.00,VWS V14.01,2013-03-10 08:25:00,
2013-03-10 04:28:00,58.5,54.0,30.13,ENE,75,0.0,1.0,85,0.00,,---,0.00,VWS V14.01,2013-03-10 08:28:00,
2013-03-10 04:31:00,58.5,54.0,30.13,ENE,75,1.0,2.0,85,0.00,,---,0.00,VWS V14.01,2013-03-10 08:31:00,
2013-03-10 04:33:00,58.4,53.9,30.13,ENE,75,2.0,2.0,85,0.00,,---,0.00,VWS V14.01,2013-03-10 08:33:00,
2013-03-10 04:34:00,58.4,54.2,30.13,ENE,75,1.0,2.0,86,0.00,,---,0.00,VWS V14.01,2013-03-10 08:34:00,
2013-03-10 04:36:00,58.4,54.2,30.12,ENE,75,1.0,2.0,86,0.00,,---,0.00,VWS V14.01,2013-03-10 08:36:00,
2013-03-10 04:39:00,58.4,54.2,30.13,ENE,75,1.0,2.0,86,0.00,,---,0.00,VWS V14.01,2013-03-10 08:39:00,
2013-03-10 04:40:00,58.4,54.2,30.13,ENE,75,1.0,2.0,86,0.00,,---,0.00,VWS V14.01,2013-03-10 08:40:00,
2013-03-10 04:41:00,58.4,54.2,30.13,ENE,75,2.0,2.0,86,0.00,,---,0.00,VWS V14.01,2013-03-10 08:41:00,
2013-03-10 04:44:00,58.3,54.1,30.12,ENE,75,0.0,2.0,86,0.00,,---,0.00,VWS V14.01,2013-03-10 08:44:00,
2013-03-10 04:45:00,58.3,54.1,30.13,ENE,75,1.0,2.0,86,0.00,,---,0.00,VWS V14.01,2013-03-10 08:45:00,
2013-03-10 04:46:00,58.3,54.1,30.13,ENE,75,1.0,2.0,86,0.00,,---,0.00,VWS V14.01,2013-03-10 08:46:00,
2013-03-10 04:49:00,58.3,54.1,30.12,ENE,75,0.0,2.0,86,0.00,,---,0.00,VWS V14.01,2013-03-10 08:49:00,
2013-03-10 04:51:00,58.2,54.0,30.12,ENE,75,1.0,1.0,86,0.00,,---,0.00,VWS V14.01,2013-03-10 08:51:00,
2013-03-10 04:52:00,58.2,54.0,30.12,ENE,75,1.0,1.0,86,0.00,,---,0.00,VWS V14.01,2013-03-10 08:52:00,
2013-03-10 04:55:00,58.2,54.0,30.12,ENE,64,1.0,2.0,86,0.00,,---,0.00,VWS V14.01,2013-03-10 08:55:00,
2013-03-10 04:56:00,58.1,53.9,30.12,East,94,1.0,2.0,86,0.00,,---,0.00,VWS V14.01,2013-03-10 08:56:00,
2013-03-10 04:57:00,58.1,53.9,30.12,East,84,2.0,2.0,86,0.00,,---,0.00,VWS V14.01,2013-03-10 08:57:00,
2013-03-10 04:59:00,58.1,54.3,30.12,NE,53,2.0,2.0,87,0.00,,---,0.00,VWS V14.01,2013-03-10 08:59:00,
2013-03-10 05:00:00,58.1,54.3,30.12,NE,53,1.0,2.0,87,0.00,,---,0.00,VWS V14.01,2013-03-10 09:00:00,
2013-03-10 05:02:00,58.1,54.3,30.12,NE,53,1.0,2.0,87,0.00,,---,0.00,VWS V14.01,2013-03-10 09:02:00,
2013-03-10 05:03:00,58.1,54.3,30.12,NE,53,1.0,2.0,87,0.00,,---,0.00,VWS V14.01,2013-03-10 09:03:00,
2013-03-10 05:04:00,58.2,54.4,30.12,ENE,59,0.0,2.0,87,0.00,,---,0.00,VWS V14.01,2013-03-10 09:04:00,
2013-03-10 05:05:00,58.2,54.4,30.12,ENE,59,1.0,2.0,87,0.00,,---,0.00,VWS V14.01,2013-03-10 09:05:00,
2013-03-10 05:08:00,58.2,54.4,30.12,ENE,59,1.0,1.0,87,0.00,,---,0.00,VWS V14.01,2013-03-10 09:08:00,
2013-03-10 05:09:00,58.2,54.4,30.12,ENE,59,2.0,2.0,87,0.00,,---,0.00,VWS V14.01,2013-03-10 09:09:00,
2013-03-10 05:10:00,58.2,54.4,30.12,ENE,59,0.0,2.0,87,0.00,,---,0.00,VWS V14.01,2013-03-10 09:10:00,
2013-03-10 05:13:00,58.2,54.4,30.12,ESE,119,0.0,2.0,87,0.00,,---,0.00,VWS V14.01,2013-03-10 09:13:00,
2013-03-10 05:14:00,58.2,54.4,30.12,ESE,119,1.0,2.0,87,0.00,,---,0.00,VWS V14.01,2013-03-10 09:14:00,
2013-03-10 05:15:00,58.2,54.4,30.12,East,88,1.0,2.0,87,0.00,,---,0.00,VWS V14.01,2013-03-10 09:15:00,
2013-03-10 05:17:00,58.2,54.4,30.12,East,88,2.0,2.0,87,0.00,,---,0.00,VWS V14.01,2013-03-10 09:17:00,
2013-03-10 05:19:00,58.2,54.4,30.12,East,88,1.0,2.0,87,0.00,,---,0.00,VWS V14.01,2013-03-10 09:19:00,
2013-03-10 05:20:00,58.2,54.4,30.12,East,86,1.0,3.0,87,0.00,,---,0.00,VWS V14.01,2013-03-10 09:20:00,
2013-03-10 05:21:00,58.2,54.4,30.12,East,86,1.0,3.0,87,0.00,,---,0.00,VWS V14.01,2013-03-10 09:21:00,
2013-03-10 05:22:00,58.2,54.4,30.12,East,86,1.0,2.0,87,0.00,,---,0.00,VWS V14.01,2013-03-10 09:22:00,
2013-03-10 05:25:00,58.2,54.4,30.12,ESE,116,1.0,2.0,87,0.00,,---,0.00,VWS V14.01,2013-03-10 09:25:00,
2013-03-10 05:26:00,58.2,54.4,30.12,ESE,116,0.0,2.0,87,0.00,,---,0.00,VWS V14.01,2013-03-10 09:26:00,
2013-03-10 05:27:00,58.2,54.4,30.12,ESE,116,1.0,1.0,87,0.00,,---,0.00,VWS V14.01,2013-03-10 09:27:00,
2013-03-10 05:31:00,58.2,54.4,30.12,ESE,111,2.0,2.0,87,0.00,,---,0.00,VWS V14.01,2013-03-10 09:31:00,
2013-03-10 05:32:00,58.2,54.4,30.12,ESE,111,1.0,2.0,87,0.00,,---,0.00,VWS V14.01,2013-03-10 09:32:00,
2013-03-10 05:33:00,58.2,54.4,30.12,ESE,111,2.0,2.0,87,0.00,,---,0.00,VWS V14.01,2013-03-10 09:33:00,
2013-03-10 05:36:00,58.3,54.5,30.12,ESE,103,0.0,2.0,87,0.00,,---,0.00,VWS V14.01,2013-03-10 09:36:00,
2013-03-10 05:37:00,58.3,54.5,30.12,ESE,103,1.0,1.0,87,0.00,,---,0.00,VWS V14.01,2013-03-10 09:37:00,
2013-03-10 05:38:00,58.3,54.5,30.12,ESE,103,1.0,2.0,87,0.00,,---,0.00,VWS V14.01,2013-03-10 09:38:00,
2013-03-10 05:41:00,58.3,54.8,30.12,East,98,0.0,2.0,88,0.00,,---,0.00,VWS V14.01,2013-03-10 09:41:00,
2013-03-10 05:43:00,58.3,54.5,30.12,East,98,3.0,3.0,87,0.00,,---,0.00,VWS V14.01,2013-03-10 09:43:00,
2013-03-10 05:45:00,58.3,54.8,30.12,NE,51,2.0,3.0,88,0.00,,---,0.00,VWS V14.01,2013-03-10 09:45:00,
2013-03-10 05:46:00,58.3,54.8,30.12,East,82,0.0,3.0,88,0.00,,---,0.00,VWS V14.01,2013-03-10 09:46:00,
2013-03-10 05:47:00,58.3,54.8,30.12,East,82,1.0,2.0,88,0.00,,---,0.00,VWS V14.01,2013-03-10 09:47:00,
2013-03-10 05:49:00,58.4,54.9,30.12,East,82,1.0,2.0,88,0.00,,---,0.00,VWS V14.01,2013-03-10 09:49:00,
2013-03-10 05:50:00,58.4,54.9,30.12,East,82,0.0,2.0,88,0.00,,---,0.00,VWS V14.01,2013-03-10 09:50:00,
2013-03-10 05:52:00,58.4,54.9,30.12,East,82,1.0,2.0,88,0.00,,---,0.00,VWS V14.01,2013-03-10 09:52:00,
2013-03-10 05:54:00,58.4,54.9,30.12,East,82,0.0,2.0,88,0.00,,---,0.00,VWS V14.01,2013-03-10 09:54:00,
2013-03-10 05:55:00,58.4,54.9,30.12,East,82,1.0,2.0,88,0.00,,---,0.00,VWS V14.01,2013-03-10 09:55:00,
2013-03-10 05:57:00,58.4,54.9,30.12,East,82,1.0,2.0,88,0.00,,---,0.00,VWS V14.01,2013-03-10 09:57:00,
2013-03-10 05:59:00,58.4,54.9,30.12,East,82,1.0,2.0,88,0.00,,---,0.00,VWS V14.01,2013-03-10 09:59:00,
2013-03-10 06:00:00,58.4,54.9,30.12,East,82,2.0,2.0,88,0.00,,---,0.00,VWS V14.01,2013-03-10 10:00:00,
2013-03-10 06:01:00,58.4,54.9,30.12,East,82,0.0,2.0,88,0.00,,---,0.00,VWS V14.01,2013-03-10 10:01:00,
2013-03-10 06:03:00,58.4,54.9,30.12,East,82,1.0,2.0,88,0.00,,---,0.00,VWS V14.01,2013-03-10 10:03:00,
2013-03-10 06:06:00,58.4,54.9,30.12,ENE,76,0.0,2.0,88,0.00,,---,0.00,VWS V14.01,2013-03-10 10:06:00,
2013-03-10 06:07:00,58.4,54.9,30.12,ENE,74,2.0,2.0,88,0.00,,---,0.00,VWS V14.01,2013-03-10 10:07:00,
2013-03-10 06:08:00,58.4,54.9,30.12,ENE,63,2.0,3.0,88,0.00,,---,0.00,VWS V14.01,2013-03-10 10:08:00,
2013-03-10 06:12:00,58.4,54.9,30.12,ENE,63,1.0,1.0,88,0.00,,---,0.00,VWS V14.01,2013-03-10 10:12:00,
2013-03-10 06:13:00,58.4,54.9,30.12,ENE,63,2.0,2.0,88,0.00,,---,0.00,VWS V14.01,2013-03-10 10:13:00,
2013-03-10 06:14:00,58.4,54.9,30.12,ENE,63,1.0,2.0,88,0.00,,---,0.00,VWS V14.01,2013-03-10 10:14:00,
2013-03-10 06:18:00,58.4,54.9,30.13,ENE,77,1.0,2.0,88,0.00,,---,0.00,VWS V14.01,2013-03-10 10:18:00,
2013-03-10 06:19:00,58.4,54.9,30.13,ENE,77,1.0,2.0,88,0.00,,---,0.00,VWS V14.01,2013-03-10 10:19:00,
2013-03-10 06:20:00,58.4,54.9,30.13,ENE,77,1.0,2.0,88,0.00,,---,0.00,VWS V14.01,2013-03-10 10:20:00,
2013-03-10 06:23:00,58.3,54.8,30.13,ENE,77,2.0,2.0,88,0.00,,---,0.00,VWS V14.01,2013-03-10 10:23:00,
2013-03-10 06:26:00,58.3,54.8,30.13,ENE,76,0.0,2.0,88,0.00,,---,0.00,VWS V14.01,2013-03-10 10:26:00,
2013-03-10 06:29:00,58.2,54.7,30.13,ENE,76,1.0,2.0,88,0.00,,---,0.00,VWS V14.01,2013-03-10 10:29:00,
2013-03-10 06:31:00,58.2,54.7,30.13,ENE,76,1.0,2.0,88,0.00,,---,0.00,VWS V14.01,2013-03-10 10:31:00,
2013-03-10 06:32:00,58.2,54.7,30.13,ENE,76,2.0,2.0,88,0.00,,---,0.00,VWS V14.01,2013-03-10 10:32:00,
2013-03-10 06:34:00,58.1,54.6,30.13,ENE,76,1.0,2.0,88,0.00,,---,0.00,VWS V14.01,2013-03-10 10:34:00,
2013-03-10 06:35:00,58.1,54.6,30.13,ENE,76,0.0,2.0,88,0.00,,---,0.00,VWS V14.01,2013-03-10 10:35:00,
2013-03-10 06:36:00,58.1,54.6,30.13,ENE,76,2.0,2.0,88,0.00,,---,0.00,VWS V14.01,2013-03-10 10:36:00,
2013-03-10 06:37:00,58.1,54.6,30.13,ENE,76,0.0,2.0,88,0.00,,---,0.00,VWS V14.01,2013-03-10 10:37:00,
2013-03-10 06:40:00,58.0,54.5,30.13,ENE,76,1.0,2.0,88,0.00,,---,0.00,VWS V14.01,2013-03-10 10:40:00,
2013-03-10 06:41:00,58.0,54.5,30.13,ENE,76,1.0,1.0,88,0.00,,---,0.00,VWS V14.01,2013-03-10 10:41:00,
2013-03-10 06:42:00,57.9,54.4,30.12,ENE,67,2.0,2.0,88,0.00,,---,0.00,VWS V14.01,2013-03-10 10:42:00,
2013-03-10 06:44:00,57.9,54.4,30.13,ENE,67,0.0,2.0,88,0.00,,---,0.00,VWS V14.01,2013-03-10 10:44:00,
2013-03-10 06:45:00,57.9,54.4,30.13,ENE,67,1.0,2.0,88,0.00,,---,0.00,VWS V14.01,2013-03-10 10:45:00,
2013-03-10 06:47:00,57.9,54.4,30.13,ENE,67,2.0,2.0,88,0.00,,---,0.00,VWS V14.01,2013-03-10 10:47:00,
2013-03-10 06:48:00,57.8,54.3,30.13,ENE,67,2.0,2.0,88,0.00,,---,0.00,VWS V14.01,2013-03-10 10:48:00,
2013-03-10 06:50:00,57.8,54.3,30.13,ENE,67,0.0,2.0,88,0.00,,---,0.00,VWS V14.01,2013-03-10 10:50:00,
2013-03-10 06:52:00,57.8,54.6,30.13,ENE,67,0.0,1.0,89,0.00,,---,0.00,VWS V14.01,2013-03-10 10:52:00,
2013-03-10 06:53:00,57.8,54.6,30.13,ENE,67,0.0,1.0,89,0.00,,---,0.00,VWS V14.01,2013-03-10 10:53:00,
2013-03-10 06:55:00,57.7,54.5,30.13,ENE,67,0.0,1.0,89,0.00,,---,0.00,VWS V14.01,2013-03-10 10:55:00,
2013-03-10 06:56:00,57.7,54.5,30.13,ENE,67,0.0,0.0,89,0.00,,---,0.00,VWS V14.01,2013-03-10 10:56:00,
2013-03-10 06:57:00,57.7,54.5,30.13,ENE,67,0.0,1.0,89,0.00,,---,0.00,VWS V14.01,2013-03-10 10:57:00,
2013-03-10 07:00:00,57.7,54.5,30.13,ENE,67,1.0,1.0,89,0.00,,---,0.00,VWS V14.01,2013-03-10 11:00:00,
2013-03-10 07:01:00,57.7,54.5,30.13,ENE,67,0.0,1.0,89,0.00,,---,0.00,VWS V14.01,2013-03-10 11:01:00,
2013-03-10 07:03:00,57.6,54.4,30.13,ENE,67,0.0,1.0,89,0.00,,---,0.00,VWS V14.01,2013-03-10 11:03:00,
2013-03-10 07:06:00,57.6,54.4,30.13,ENE,67,0.0,2.0,89,0.00,,---,0.00,VWS V14.01,2013-03-10 11:06:00,
2013-03-10 07:07:00,57.6,54.4,30.13,ENE,67,0.0,1.0,89,0.00,,---,0.00,VWS V14.01,2013-03-10 11:07:00,
2013-03-10 07:09:00,57.5,54.3,30.13,ENE,67,1.0,1.0,89,0.00,,---,0.00,VWS V14.01,2013-03-10 11:09:00,
2013-03-10 07:11:00,57.5,54.3,30.13,ENE,67,0.0,1.0,89,0.00,,---,0.00,VWS V14.01,2013-03-10 11:11:00,
2013-03-10 07:12:00,57.5,54.3,30.14,ENE,67,0.0,1.0,89,0.00,,---,0.00,VWS V14.01,2013-03-10 11:12:00,
2013-03-10 07:14:00,57.5,54.3,30.14,ENE,67,0.0,1.0,89,0.00,,---,0.00,VWS V14.01,2013-03-10 11:14:00,
2013-03-10 07:16:00,57.4,54.2,30.14,ENE,67,0.0,0.0,89,0.00,,---,0.00,VWS V14.01,2013-03-10 11:16:00,
2013-03-10 07:18:00,57.4,54.2,30.14,ENE,67,0.0,0.0,89,0.00,,---,0.00,VWS V14.01,2013-03-10 11:18:00,
2013-03-10 07:20:00,57.4,54.2,30.14,ENE,67,0.0,0.0,89,0.00,,---,0.00,VWS V14.01,2013-03-10 11:20:00,
2013-03-10 07:22:00,57.3,54.4,30.14,ENE,67,0.0,0.0,90,0.00,,---,0.00,VWS V14.01,2013-03-10 11:22:00,
2013-03-10 07:23:00,57.3,54.4,30.14,ENE,67,0.0,0.0,90,0.00,,---,0.00,VWS V14.01,2013-03-10 11:23:00,
2013-03-10 07:25:00,57.3,54.4,30.14,ENE,67,0.0,0.0,90,0.00,,---,0.00,VWS V14.01,2013-03-10 11:25:00,
2013-03-10 07:28:00,57.3,54.4,30.14,ENE,67,0.0,1.0,90,0.00,,---,0.00,VWS V14.01,2013-03-10 11:28:00,
2013-03-10 07:30:00,57.3,54.4,30.14,ENE,67,0.0,1.0,90,0.00,,---,0.00,VWS V14.01,2013-03-10 11:30:00,
2013-03-10 07:31:00,57.3,54.4,30.14,ENE,67,0.0,0.0,90,0.00,,---,0.00,VWS V14.01,2013-03-10 11:31:00,
2013-03-10 07:34:00,57.3,54.4,30.14,ENE,67,0.0,1.0,90,0.00,,---,0.00,VWS V14.01,2013-03-10 11:34:00,
2013-03-10 07:36:00,57.2,54.3,30.14,ENE,67,0.0,1.0,90,0.00,,---,0.00,VWS V14.01,2013-03-10 11:36:00,
2013-03-10 07:37:00,57.2,54.3,30.14,ENE,67,0.0,0.0,90,0.00,,---,0.00,VWS V14.01,2013-03-10 11:37:00,
2013-03-10 07:40:00,57.2,54.3,30.14,ENE,67,0.0,0.0,90,0.00,,---,0.00,VWS V14.01,2013-03-10 11:40:00,
2013-03-10 07:41:00,57.1,54.2,30.14,ENE,67,0.0,0.0,90,0.00,,---,0.00,VWS V14.01,2013-03-10 11:41:00,
2013-03-10 07:42:00,57.1,54.2,30.15,ENE,67,0.0,0.0,90,0.00,,---,0.00,VWS V14.01,2013-03-10 11:42:00,
2013-03-10 07:43:00,57.1,54.2,30.14,ENE,67,0.0,0.0,90,0.00,,---,0.00,VWS V14.01,2013-03-10 11:43:00,
2013-03-10 07:46:00,57.0,54.1,30.15,ENE,67,0.0,0.0,90,0.00,,---,0.00,VWS V14.01,2013-03-10 11:46:00,
2013-03-10 07:47:00,57.0,54.1,30.15,ENE,67,0.0,0.0,90,0.00,,---,0.00,VWS V14.01,2013-03-10 11:47:00,
2013-03-10 07:48:00,57.0,54.1,30.15,ENE,67,0.0,0.0,90,0.00,,---,0.00,VWS V14.01,2013-03-10 11:48:00,
2013-03-10 07:49:00,57.0,54.1,30.15,ENE,67,0.0,0.0,90,0.00,,---,0.00,VWS V14.01,2013-03-10 11:49:00,
2013-03-10 07:52:00,56.9,54.0,30.15,ENE,67,0.0,0.0,90,0.00,,---,0.00,VWS V14.01,2013-03-10 11:52:00,
2013-03-10 07:54:00,56.9,54.0,30.15,ENE,67,0.0,0.0,90,0.00,,---,0.00,VWS V14.01,2013-03-10 11:54:00,
2013-03-10 07:55:00,56.8,53.9,30.15,ENE,67,0.0,0.0,90,0.00,,---,0.00,VWS V14.01,2013-03-10 11:55:00,
2013-03-10 07:57:00,56.8,53.9,30.15,ENE,67,0.0,0.0,90,0.00,,---,0.00,VWS V14.01,2013-03-10 11:57:00,
2013-03-10 07:59:00,56.8,54.2,30.15,ENE,67,0.0,0.0,91,0.00,,---,0.00,VWS V14.01,2013-03-10 11:59:00,
2013-03-10 08:01:00,56.8,54.2,30.15,ENE,67,0.0,0.0,91,0.00,,---,0.00,VWS V14.01,2013-03-10 12:01:00,
2013-03-10 08:02:00,56.8,54.2,30.15,ENE,67,0.0,0.0,91,0.00,,---,0.00,VWS V14.01,2013-03-10 12:02:00,
2013-03-10 08:03:00,56.8,54.2,30.15,ENE,67,0.0,0.0,91,0.00,,---,0.00,VWS V14.01,2013-03-10 12:03:00,
2013-03-10 08:06:00,56.8,54.5,30.15,ENE,67,0.0,1.0,92,0.00,,---,0.00,VWS V14.01,2013-03-10 12:06:00,
2013-03-10 08:09:00,56.9,54.6,30.15,ENE,67,0.0,1.0,92,0.00,,---,0.00,VWS V14.01,2013-03-10 12:09:00,
2013-03-10 08:11:00,56.9,54.6,30.15,ENE,67,0.0,2.0,92,0.00,,---,0.00,VWS V14.01,2013-03-10 12:11:00,
2013-03-10 08:13:00,57.1,54.8,30.15,ENE,67,0.0,0.0,92,0.00,,---,0.00,VWS V14.01,2013-03-10 12:13:00,
2013-03-10 08:14:00,57.1,54.8,30.15,ENE,67,0.0,1.0,92,0.00,,---,0.00,VWS V14.01,2013-03-10 12:14:00,
2013-03-10 08:15:00,57.1,54.8,30.15,ENE,67,0.0,1.0,92,0.00,,---,0.00,VWS V14.01,2013-03-10 12:15:00,
2013-03-10 08:16:00,57.2,54.6,30.15,ENE,67,0.0,0.0,91,0.00,,---,0.00,VWS V14.01,2013-03-10 12:16:00,
2013-03-10 08:18:00,57.3,54.7,30.15,ENE,67,0.0,1.0,91,0.00,,---,0.00,VWS V14.01,2013-03-10 12:18:00,
2013-03-10 08:20:00,57.3,54.7,30.15,ENE,67,0.0,1.0,91,0.00,,---,0.00,VWS V14.01,2013-03-10 12:20:00,
2013-03-10 08:23:00,57.5,54.9,30.16,ENE,67,0.0,1.0,91,0.00,,---,0.00,VWS V14.01,2013-03-10 12:23:00,
2013-03-10 08:24:00,57.5,54.9,30.16,ENE,67,0.0,1.0,91,0.00,,---,0.00,VWS V14.01,2013-03-10 12:24:00,
2013-03-10 08:25:00,57.6,55.0,30.16,ENE,67,0.0,1.0,91,0.00,,---,0.00,VWS V14.01,2013-03-10 12:25:00,
2013-03-10 08:27:00,57.7,55.1,30.16,ENE,67,1.0,2.0,91,0.00,,---,0.00,VWS V14.01,2013-03-10 12:27:00,
2013-03-10 08:29:00,57.7,55.1,30.16,ENE,67,0.0,2.0,91,0.00,,---,0.00,VWS V14.01,2013-03-10 12:29:00,
2013-03-10 08:30:00,57.8,54.9,30.16,ENE,67,0.0,2.0,90,0.00,,---,0.00,VWS V14.01,2013-03-10 12:30:00,
2013-03-10 08:31:00,57.8,54.9,30.16,ENE,67,0.0,2.0,90,0.00,,---,0.00,VWS V14.01,2013-03-10 12:31:00,
2013-03-10 08:32:00,57.9,55.3,30.16,ENE,67,0.0,0.0,91,0.00,,---,0.00,VWS V14.01,2013-03-10 12:32:00,
2013-03-10 08:34:00,58.0,55.4,30.16,ENE,67,1.0,2.0,91,0.00,,---,0.00,VWS V14.01,2013-03-10 12:34:00,
2013-03-10 08:36:00,58.0,55.4,30.16,ENE,67,1.0,2.0,91,0.00,,---,0.00,VWS V14.01,2013-03-10 12:36:00,
2013-03-10 08:38:00,58.1,55.2,30.16,ENE,67,0.0,1.0,90,0.00,,---,0.00,VWS V14.01,2013-03-10 12:38:00,
2013-03-10 08:41:00,58.2,55.3,30.16,ENE,67,1.0,2.0,90,0.00,,---,0.00,VWS V14.01,2013-03-10 12:41:00,
2013-03-10 08:43:00,58.3,55.4,30.16,ENE,67,0.0,1.0,90,0.00,,---,0.00,VWS V14.01,2013-03-10 12:43:00,
2013-03-10 08:46:00,58.4,55.5,30.16,ENE,67,0.0,1.0,90,0.00,,---,0.00,VWS V14.01,2013-03-10 12:46:00,
2013-03-10 08:48:00,58.5,55.3,30.16,ENE,67,1.0,2.0,89,0.00,,---,0.00,VWS V14.01,2013-03-10 12:48:00,
2013-03-10 08:51:00,58.7,55.5,30.16,ENE,67,2.0,2.0,89,0.00,,---,0.00,VWS V14.01,2013-03-10 12:51:00,
2013-03-10 08:52:00,58.7,55.5,30.16,ENE,67,0.0,2.0,89,0.00,,---,0.00,VWS V14.01,2013-03-10 12:52:00,
2013-03-10 08:53:00,58.7,55.5,30.16,ENE,67,0.0,2.0,89,0.00,,---,0.00,VWS V14.01,2013-03-10 12:53:00,
2013-03-10 08:54:00,58.7,55.5,30.16,ENE,67,0.0,2.0,89,0.00,,---,0.00,VWS V14.01,2013-03-10 12:54:00,
2013-03-10 08:57:00,58.9,55.4,30.16,ENE,67,1.0,1.0,88,0.00,,---,0.00,VWS V14.01,2013-03-10 12:57:00,
2013-03-10 08:59:00,59.0,55.5,30.16,ENE,65,1.0,2.0,88,0.00,,---,0.00,VWS V14.01,2013-03-10 12:59:00,
2013-03-10 09:00:00,59.0,55.5,30.16,ENE,66,0.0,2.0,88,0.00,,---,0.00,VWS V14.01,2013-03-10 13:00:00,
2013-03-10 09:02:00,59.1,55.5,30.16,ENE,65,1.0,2.0,88,0.00,,---,0.00,VWS V14.01,2013-03-10 13:02:00,
2013-03-10 09:03:00,59.1,55.5,30.16,ENE,66,0.0,2.0,88,0.00,,---,0.00,VWS V14.01,2013-03-10 13:03:00,
2013-03-10 09:05:00,59.2,55.7,30.16,ENE,69,1.0,2.0,88,0.00,,---,0.00,VWS V14.01,2013-03-10 13:05:00,
2013-03-10 09:07:00,59.3,55.8,30.16,ENE,69,1.0,1.0,88,0.00,,---,0.00,VWS V14.01,2013-03-10 13:07:00,
2013-03-10 09:09:00,59.4,55.5,30.16,ENE,67,0.0,3.0,87,0.00,,---,0.00,VWS V14.01,2013-03-10 13:09:00,
2013-03-10 09:12:00,59.5,55.6,30.16,ENE,67,2.0,2.0,87,0.00,,---,0.00,VWS V14.01,2013-03-10 13:12:00,
2013-03-10 09:14:00,59.7,55.5,30.16,ENE,66,3.0,5.0,86,0.00,,---,0.00,VWS V14.01,2013-03-10 13:14:00,
2013-03-10 09:17:00,59.8,55.6,30.16,NE,53,1.0,3.0,86,0.00,,---,0.00,VWS V14.01,2013-03-10 13:17:00,
2013-03-10 09:18:00,59.9,55.7,30.16,NE,53,1.0,3.0,86,0.00,,---,0.00,VWS V14.01,2013-03-10 13:18:00,
2013-03-10 09:19:00,60.0,55.8,30.16,ESE,104,1.0,3.0,86,0.00,,---,0.00,VWS V14.01,2013-03-10 13:19:00,
2013-03-10 09:23:00,60.2,55.7,30.16,NE,54,1.0,3.0,85,0.00,,---,0.00,VWS V14.01,2013-03-10 13:23:00,
2013-03-10 09:24:00,60.3,55.8,30.16,NE,54,0.0,3.0,85,0.00,,---,0.00,VWS V14.01,2013-03-10 13:24:00,
2013-03-10 09:25:00,60.4,55.9,30.17,NE,54,1.0,3.0,85,0.00,,---,0.00,VWS V14.01,2013-03-10 13:25:00,
2013-03-10 09:28:00,60.5,55.7,30.16,ENE,65,1.0,2.0,84,0.00,,---,0.00,VWS V14.01,2013-03-10 13:28:00,
2013-03-10 09:29:00,60.6,55.8,30.16,ENE,72,4.0,4.0,84,0.00,,---,0.00,VWS V14.01,2013-03-10 13:29:00,
2013-03-10 09:30:00,60.7,55.8,30.16,ENE,71,2.0,4.0,84,0.00,,---,0.00,VWS V14.01,2013-03-10 13:30:00,
2013-03-10 09:34:00,60.9,55.7,30.16,ENE,57,2.0,3.0,83,0.00,,---,0.00,VWS V14.01,2013-03-10 13:34:00,
2013-03-10 09:37:00,61.1,55.9,30.16,ENE,57,2.0,2.0,83,0.00,,---,0.00,VWS V14.01,2013-03-10 13:37:00,
2013-03-10 09:39:00,61.2,55.7,30.16,NE,52,2.0,4.0,82,0.00,,---,0.00,VWS V14.01,2013-03-10 13:39:00,
2013-03-10 09:40:00,61.2,55.7,30.16,ENE,70,2.0,4.0,82,0.00,,---,0.00,VWS V14.01,2013-03-10 13:40:00,
2013-03-10 09:41:00,61.2,55.7,30.16,ENE,65,3.0,3.0,82,0.00,,---,0.00,VWS V14.01,2013-03-10 13:41:00,
2013-03-10 09:42:00,61.2,55.7,30.16,ENE,72,1.0,3.0,82,0.00,,---,0.00,VWS V14.01,2013-03-10 13:42:00,
2013-03-10 09:45:00,61.2,55.7,30.16,East,86,2.0,3.0,82,0.00,,---,0.00,VWS V14.01,2013-03-10 13:45:00,
2013-03-10 09:46:00,61.2,55.7,30.16,NE,34,2.0,3.0,82,0.00,,---,0.00,VWS V14.01,2013-03-10 13:46:00,
2013-03-10 09:47:00,61.3,55.8,30.16,ENE,69,1.0,2.0,82,0.00,,---,0.00,VWS V14.01,2013-03-10 13:47:00,
2013-03-10 09:49:00,61.3,56.1,30.16,East,98,3.0,3.0,83,0.00,,---,0.00,VWS V14.01,2013-03-10 13:49:00,
2013-03-10 09:50:00,61.3,55.8,30.16,ENE,64,2.0,3.0,82,0.00,,---,0.00,VWS V14.01,2013-03-10 13:50:00,
2013-03-10 09:51:00,61.4,55.9,30.16,ENE,64,0.0,1.0,82,0.00,,---,0.00,VWS V14.01,2013-03-10 13:51:00,
2013-03-10 09:52:00,61.4,55.9,30.16,ENE,64,1.0,2.0,82,0.00,,---,0.00,VWS V14.01,2013-03-10 13:52:00,
2013-03-10 09:54:00,61.7,56.2,30.16,ENE,59,1.0,4.0,82,0.00,,---,0.00,VWS V14.01,2013-03-10 13:54:00,
2013-03-10 09:55:00,61.8,56.2,30.16,East,82,3.0,4.0,82,0.00,,---,0.00,VWS V14.01,2013-03-10 13:55:00,
2013-03-10 09:56:00,62.0,56.1,30.16,ENE,70,2.0,3.0,81,0.00,,---,0.00,VWS V14.01,2013-03-10 13:56:00,
2013-03-10 09:58:00,62.2,56.3,30.16,ESE,115,2.0,3.0,81,0.00,,---,0.00,VWS V14.01,2013-03-10 13:58:00,
2013-03-10 10:00:00,62.6,56.0,30.16,East,85,2.0,5.0,79,0.00,,---,0.00,VWS V14.01,2013-03-10 14:00:00,
2013-03-10 10:01:00,62.7,56.1,30.16,ENE,77,2.0,5.0,79,0.00,,---,0.00,VWS V14.01,2013-03-10 14:01:00,
2013-03-10 10:04:00,63.0,56.4,30.16,East,101,2.0,9.0,79,0.00,,---,0.00,VWS V14.01,2013-03-10 14:04:00,
2013-03-10 10:05:00,63.1,56.1,30.16,East,96,2.0,9.0,78,0.00,,---,0.00,VWS V14.01,2013-03-10 14:05:00,
2013-03-10 10:06:00,63.2,56.2,30.16,East,90,2.0,9.0,78,0.00,,---,0.00,VWS V14.01,2013-03-10 14:06:00,
2013-03-10 10:09:00,63.6,56.3,30.16,NE,53,2.0,4.0,77,0.00,,---,0.00,VWS V14.01,2013-03-10 14:09:00,
2013-03-10 10:11:00,63.8,56.5,30.16,NE,40,2.0,7.0,77,0.00,,---,0.00,VWS V14.01,2013-03-10 14:11:00,
2013-03-10 10:12:00,63.9,56.2,30.16,NE,45,1.0,3.0,76,0.00,,---,0.00,VWS V14.01,2013-03-10 14:12:00,
2013-03-10 10:14:00,64.1,56.8,30.16,NE,39,3.0,3.0,77,0.00,,---,0.00,VWS V14.01,2013-03-10 14:14:00,
2013-03-10 10:16:00,64.3,56.6,30.16,ENE,62,2.0,4.0,76,0.00,,---,0.00,VWS V14.01,2013-03-10 14:16:00,
2013-03-10 10:18:00,64.5,56.4,30.17,ENE,65,4.0,4.0,75,0.00,,---,0.00,VWS V14.01,2013-03-10 14:18:00,
2013-03-10 10:21:00,64.9,56.4,30.17,ESE,107,3.0,6.0,74,0.00,,---,0.00,VWS V14.01,2013-03-10 14:21:00,
2013-03-10 10:23:00,65.0,56.5,30.17,NE,55,3.0,4.0,74,0.00,,---,0.00,VWS V14.01,2013-03-10 14:23:00,
2013-03-10 10:26:00,65.1,56.6,30.17,ENE,58,1.0,2.0,74,0.00,,---,0.00,VWS V14.01,2013-03-10 14:26:00,
2013-03-10 10:28:00,65.0,56.5,30.17,NE,55,0.0,6.0,74,0.00,,---,0.00,VWS V14.01,2013-03-10 14:28:00,
2013-03-10 10:29:00,65.1,56.6,30.17,ENE,61,2.0,6.0,74,0.00,,---,0.00,VWS V14.01,2013-03-10 14:29:00,
2013-03-10 10:31:00,65.0,56.5,30.17,ENE,61,3.0,5.0,74,0.00,,---,0.00,VWS V14.01,2013-03-10 14:31:00,
2013-03-10 10:34:00,65.0,56.5,30.17,NE,46,2.0,5.0,74,0.00,,---,0.00,VWS V14.01,2013-03-10 14:34:00,
2013-03-10 10:35:00,65.1,56.6,30.17,NNE,30,2.0,5.0,74,0.00,,---,0.00,VWS V14.01,2013-03-10 14:35:00,
2013-03-10 10:37:00,65.1,56.6,30.17,ENE,65,2.0,3.0,74,0.00,,---,0.00,VWS V14.01,2013-03-10 14:37:00,
2013-03-10 10:39:00,65.2,56.7,30.17,ENE,66,1.0,3.0,74,0.00,,---,0.00,VWS V14.01,2013-03-10 14:39:00,
2013-03-10 10:40:00,65.2,56.7,30.17,ENE,66,1.0,3.0,74,0.00,,---,0.00,VWS V14.01,2013-03-10 14:40:00,
2013-03-10 10:42:00,65.4,56.9,30.17,ENE,65,1.0,5.0,74,0.00,,---,0.00,VWS V14.01,2013-03-10 14:42:00,
2013-03-10 10:44:00,65.6,56.7,30.17,East,79,3.0,5.0,73,0.00,,---,0.00,VWS V14.01,2013-03-10 14:44:00,
2013-03-10 10:45:00,65.6,56.7,30.17,East,89,2.0,5.0,73,0.00,,---,0.00,VWS V14.01,2013-03-10 14:45:00,
2013-03-10 10:47:00,65.9,57.0,30.17,NNE,28,3.0,3.0,73,0.00,,---,0.00,VWS V14.01,2013-03-10 14:47:00,
2013-03-10 10:48:00,66.0,57.1,30.16,East,84,3.0,6.0,73,0.00,,---,0.00,VWS V14.01,2013-03-10 14:48:00,
2013-03-10 10:50:00,66.2,56.9,30.16,NE,53,3.0,6.0,72,0.00,,---,0.00,VWS V14.01,2013-03-10 14:50:00,
2013-03-10 10:52:00,66.6,57.3,30.16,East,84,2.0,3.0,72,0.00,,---,0.00,VWS V14.01,2013-03-10 14:52:00,
2013-03-10 10:53:00,66.6,57.3,30.16,ESE,113,2.0,3.0,72,0.00,,---,0.00,VWS V14.01,2013-03-10 14:53:00,
2013-03-10 10:55:00,67.0,57.3,30.16,East,96,2.0,7.0,71,0.00,,---,0.00,VWS V14.01,2013-03-10 14:55:00,
2013-03-10 10:58:00,67.4,57.3,30.16,ENE,63,3.0,4.0,70,0.00,,---,0.00,VWS V14.01,2013-03-10 14:58:00,
2013-03-10 11:00:00,67.8,57.3,30.16,NNE,14,3.0,5.0,69,0.00,,---,0.00,VWS V14.01,2013-03-10 15:00:00,
2013-03-10 11:03:00,68.3,57.8,30.16,East,83,3.0,5.0,69,0.00,,---,0.00,VWS V14.01,2013-03-10 15:03:00,
2013-03-10 11:04:00,68.5,57.1,30.16,ENE,62,3.0,6.0,67,0.00,,---,0.00,VWS V14.01,2013-03-10 15:04:00,
2013-03-10 11:05:00,68.6,57.2,30.16,ENE,58,3.0,6.0,67,0.00,,---,0.00,VWS V14.01,2013-03-10 15:05:00,
2013-03-10 11:08:00,68.9,57.5,30.15,ESE,109,3.0,3.0,67,0.00,,---,0.00,VWS V14.01,2013-03-10 15:08:00,
2013-03-10 11:10:00,69.0,57.2,30.15,ENE,63,2.0,7.0,66,0.00,,---,0.00,VWS V14.01,2013-03-10 15:10:00,
2013-03-10 11:11:00,69.0,57.2,30.15,SE,132,3.0,7.0,66,0.00,,---,0.00,VWS V14.01,2013-03-10 15:11:00,
2013-03-10 11:13:00,69.2,57.4,30.15,ENE,59,3.0,5.0,66,0.00,,---,0.00,VWS V14.01,2013-03-10 15:13:00,
2013-03-10 11:14:00,69.2,57.0,30.15,East,84,3.0,5.0,65,0.00,,---,0.00,VWS V14.01,2013-03-10 15:14:00,
2013-03-10 11:15:00,69.4,57.6,30.15,ESE,111,5.0,5.0,66,0.00,,---,0.00,VWS V14.01,2013-03-10 15:15:00,
2013-03-10 11:16:00,69.4,57.6,30.15,ENE,63,3.0,5.0,66,0.00,,---,0.00,VWS V14.01,2013-03-10 15:16:00,
2013-03-10 11:18:00,69.7,57.0,30.15,NE,38,4.0,8.0,64,0.00,,---,0.00,VWS V14.01,2013-03-10 15:18:00,
2013-03-10 11:19:00,69.7,57.0,30.14,ENE,63,4.0,8.0,64,0.00,,---,0.00,VWS V14.01,2013-03-10 15:19:00,
2013-03-10 11:21:00,69.7,57.0,30.14,East,86,3.0,8.0,64,0.00,,---,0.00,VWS V14.01,2013-03-10 15:21:00,
2013-03-10 11:25:00,70.0,57.3,30.14,NE,55,3.0,7.0,64,0.00,,---,0.00,VWS V14.01,2013-03-10 15:25:00,
2013-03-10 11:26:00,70.2,57.5,30.14,ENE,60,4.0,4.0,64,0.00,,---,0.00,VWS V14.01,2013-03-10 15:26:00,
2013-03-10 11:27:00,70.3,57.6,30.14,NNE,19,2.0,4.0,64,0.00,,---,0.00,VWS V14.01,2013-03-10 15:27:00,
2013-03-10 11:28:00,70.4,57.2,30.14,NE,48,3.0,4.0,63,0.00,,---,0.00,VWS V14.01,2013-03-10 15:28:00,
2013-03-10 11:32:00,70.7,57.1,30.13,ENE,78,7.0,7.0,62,0.00,,---,0.00,VWS V14.01,2013-03-10 15:32:00,
2013-03-10 11:33:00,70.7,57.1,30.13,ENE,76,5.0,7.0,62,0.00,,---,0.00,VWS V14.01,2013-03-10 15:33:00,
2013-03-10 11:37:00,70.6,57.0,30.13,ENE,59,2.0,5.0,62,0.00,,---,0.00,VWS V14.01,2013-03-10 15:37:00,
2013-03-10 11:38:00,70.6,57.0,30.13,NE,54,2.0,5.0,62,0.00,,---,0.00,VWS V14.01,2013-03-10 15:38:00,
2013-03-10 11:39:00,70.8,57.2,30.13,ESE,117,5.0,5.0,62,0.00,,---,0.00,VWS V14.01,2013-03-10 15:39:00,
2013-03-10 11:42:00,71.1,57.4,30.12,East,80,3.0,4.0,62,0.00,,---,0.00,VWS V14.01,2013-03-10 15:42:00,
2013-03-10 11:43:00,71.2,57.1,30.13,East,80,3.0,4.0,61,0.00,,---,0.00,VWS V14.01,2013-03-10 15:43:00,
2013-03-10 11:44:00,71.3,57.2,30.12,East,101,3.0,5.0,61,0.00,,---,0.00,VWS V14.01,2013-03-10 15:44:00,
2013-03-10 11:46:00,71.5,56.9,30.12,NE,51,3.0,7.0,60,0.00,,---,0.00,VWS V14.01,2013-03-10 15:46:00,
2013-03-10 11:49:00,71.7,57.1,30.12,ESE,117,3.0,13.0,60,0.00,,---,0.00,VWS V14.01,2013-03-10 15:49:00,
2013-03-10 11:50:00,71.7,56.6,30.12,NE,36,3.0,13.0,59,0.00,,---,0.00,VWS V14.01,2013-03-10 15:50:00,
2013-03-10 11:51:00,71.7,56.6,30.12,ESE,119,3.0,13.0,59,0.00,,---,0.00,VWS V14.01,2013-03-10 15:51:00,
2013-03-10 11:54:00,71.9,57.3,30.12,East,80,2.0,7.0,60,0.00,,---,0.00,VWS V14.01,2013-03-10 15:54:00,
2013-03-10 11:55:00,72.1,57.0,30.12,East,84,3.0,7.0,59,0.00,,---,0.00,VWS V14.01,2013-03-10 15:55:00,
2013-03-10 11:56:00,72.1,56.5,30.12,ENE,77,4.0,8.0,58,0.00,,---,0.00,VWS V14.01,2013-03-10 15:56:00,
2013-03-10 12:01:00,72.3,57.2,30.11,SSE,148,1.0,8.0,59,0.00,,---,0.00,VWS V14.01,2013-03-10 16:01:00,
2013-03-10 12:02:00,72.3,57.2,30.12,ENE,77,7.0,7.0,59,0.00,,---,0.00,VWS V14.01,2013-03-10 16:02:00,
2013-03-10 12:06:00,72.6,56.5,30.11,ENE,66,3.0,3.0,57,0.00,,---,0.00,VWS V14.01,2013-03-10 16:06:00,
2013-03-10 12:07:00,72.7,56.6,30.12,ESE,105,3.0,4.0,57,0.00,,---,0.00,VWS V14.01,2013-03-10 16:07:00,
2013-03-10 12:10:00,72.9,56.8,30.12,ESE,107,3.0,8.0,57,0.00,,---,0.00,VWS V14.01,2013-03-10 16:10:00,
2013-03-10 12:11:00,73.0,57.4,30.12,SE,141,2.0,7.0,58,0.00,,---,0.00,VWS V14.01,2013-03-10 16:11:00,
2013-03-10 12:12:00,73.1,57.5,30.12,East,80,5.0,8.0,58,0.00,,---,0.00,VWS V14.01,2013-03-10 16:12:00,
2013-03-10 12:14:00,73.1,57.0,30.11,ESE,118,3.0,8.0,57,0.00,,---,0.00,VWS V14.01,2013-03-10 16:14:00,
2013-03-10 12:15:00,73.2,57.5,30.11,East,88,2.0,9.0,58,0.00,,---,0.00,VWS V14.01,2013-03-10 16:15:00,
2013-03-10 12:17:00,73.3,57.2,30.11,NE,41,3.0,8.0,57,0.00,,---,0.00,VWS V14.01,2013-03-10 16:17:00,
2013-03-10 12:19:00,73.4,57.3,30.11,SSE,161,7.0,8.0,57,0.00,,---,0.00,VWS V14.01,2013-03-10 16:19:00,
2013-03-10 12:21:00,73.5,56.9,30.11,East,98,3.0,8.0,56,0.00,,---,0.00,VWS V14.01,2013-03-10 16:21:00,
2013-03-10 12:23:00,73.7,57.0,30.11,East,79,7.0,7.0,56,0.00,,---,0.00,VWS V14.01,2013-03-10 16:23:00,
2013-03-10 12:24:00,73.8,56.6,30.11,ENE,66,4.0,9.0,55,0.00,,---,0.00,VWS V14.01,2013-03-10 16:24:00,
2013-03-10 12:25:00,73.8,56.6,30.11,East,96,5.0,9.0,55,0.00,,---,0.00,VWS V14.01,2013-03-10 16:25:00,
2013-03-10 12:26:00,73.9,56.7,30.11,East,79,2.0,9.0,55,0.00,,---,0.00,VWS V14.01,2013-03-10 16:26:00,
2013-03-10 12:29:00,73.9,56.2,30.11,East,91,1.0,8.0,54,0.00,,---,0.00,VWS V14.01,2013-03-10 16:29:00,
2013-03-10 12:30:00,73.9,56.7,30.12,SSE,157,4.0,8.0,55,0.00,,---,0.00,VWS V14.01,2013-03-10 16:30:00,
2013-03-10 12:31:00,73.7,56.5,30.12,ESE,116,2.0,3.0,55,0.00,,---,0.00,VWS V14.01,2013-03-10 16:31:00,
2013-03-10 12:35:00,73.8,56.6,30.11,East,94,3.0,8.0,55,0.00,,---,0.00,VWS V14.01,2013-03-10 16:35:00,
2013-03-10 12:36:00,73.8,56.6,30.11,East,99,9.0,9.0,55,0.00,,---,0.00,VWS V14.01,2013-03-10 16:36:00,
2013-03-10 12:38:00,73.9,56.7,30.11,East,82,3.0,9.0,55,0.00,,---,0.00,VWS V14.01,2013-03-10 16:38:00,
2013-03-10 12:41:00,74.1,56.9,30.11,ESE,123,4.0,9.0,55,0.00,,---,0.00,VWS V14.01,2013-03-10 16:41:00,
2013-03-10 12:43:00,74.1,56.4,30.11,SSE,167,3.0,11.0,54,0.00,,---,0.00,VWS V14.01,2013-03-10 16:43:00,
2013-03-10 12:46:00,74.2,57.0,30.12,East,81,3.0,6.0,55,0.00,,---,0.00,VWS V14.01,2013-03-10 16:46:00,
2013-03-10 12:47:00,74.2,56.5,30.12,East,88,1.0,6.0,54,0.00,,---,0.00,VWS V14.01,2013-03-10 16:47:00,
2013-03-10 12:48:00,74.3,56.6,30.12,ESE,115,2.0,6.0,54,0.00,,---,0.00,VWS V14.01,2013-03-10 16:48:00,
2013-03-10 12:49:00,74.4,56.7,30.12,SE,124,0.0,6.0,54,0.00,,---,0.00,VWS V14.01,2013-03-10 16:49:00,
2013-03-10 12:52:00,74.6,57.4,30.12,SE,138,2.0,3.0,55,0.00,,---,0.00,VWS V14.01,2013-03-10 16:52:00,
2013-03-10 12:53:00,74.8,57.6,30.12,ESE,114,3.0,3.0,55,0.00,,---,0.00,VWS V14.01,2013-03-10 16:53:00,
2013-03-10 12:54:00,74.9,57.7,30.12,ENE,63,5.0,10.0,55,0.00,,---,0.00,VWS V14.01,2013-03-10 16:54:00,
2013-03-10 12:55:00,75.0,56.7,30.12,NE,54,2.0,10.0,53,0.00,,---,0.00,VWS V14.01,2013-03-10 16:55:00,
2013-03-10 12:57:00,75.2,56.9,30.12,East,95,3.0,5.0,53,0.00,,---,0.00,VWS V14.01,2013-03-10 16:57:00,
2013-03-10 12:59:00,75.4,56.6,30.12,East,101,3.0,10.0,52,0.00,,---,0.00,VWS V14.01,2013-03-10 16:59:00,
2013-03-10 13:00:00,75.4,57.1,30.12,NNE,13,1.0,10.0,53,0.00,,---,0.00,VWS V14.01,2013-03-10 17:00:00,
2013-03-10 13:02:00,75.4,56.6,30.12,East,96,2.0,4.0,52,0.00,,---,0.00,VWS V14.01,2013-03-10 17:02:00,
2013-03-10 13:05:00,75.5,57.7,30.12,East,101,5.0,9.0,54,0.00,,---,0.00,VWS V14.01,2013-03-10 17:05:00,
2013-03-10 13:06:00,75.5,57.7,30.12,East,101,1.0,9.0,54,0.00,,---,0.00,VWS V14.01,2013-03-10 17:06:00,
2013-03-10 13:07:00,75.7,57.4,30.11,NE,56,5.0,5.0,53,0.00,,---,0.00,VWS V14.01,2013-03-10 17:07:00,
2013-03-10 13:08:00,75.9,56.5,30.12,ENE,69,3.0,7.0,51,0.00,,---,0.00,VWS V14.01,2013-03-10 17:08:00,
2013-03-10 13:11:00,76.3,56.9,30.11,East,98,1.0,11.0,51,0.00,,---,0.00,VWS V14.01,2013-03-10 17:11:00,
2013-03-10 13:13:00,76.4,57.0,30.12,ESE,117,3.0,8.0,51,0.00,,---,0.00,VWS V14.01,2013-03-10 17:13:00,
2013-03-10 13:16:00,76.5,56.5,30.12,North,5,6.0,13.0,50,0.00,,---,0.00,VWS V14.01,2013-03-10 17:16:00,
2013-03-10 13:17:00,76.6,56.6,30.12,East,96,2.0,8.0,50,0.00,,---,0.00,VWS V14.01,2013-03-10 17:17:00,
2013-03-10 13:20:00,76.7,56.7,30.12,ENE,66,2.0,8.0,50,0.00,,---,0.00,VWS V14.01,2013-03-10 17:20:00,
2013-03-10 13:21:00,76.7,56.7,30.12,East,86,3.0,8.0,50,0.00,,---,0.00,VWS V14.01,2013-03-10 17:21:00,
2013-03-10 13:22:00,76.8,56.8,30.12,NE,50,5.0,8.0,50,0.00,,---,0.00,VWS V14.01,2013-03-10 17:22:00,
2013-03-10 13:26:00,76.7,56.1,30.12,SE,140,3.0,9.0,49,0.00,,---,0.00,VWS V14.01,2013-03-10 17:26:00,
2013-03-10 13:27:00,76.7,56.7,30.11,East,87,5.0,5.0,50,0.00,,---,0.00,VWS V14.01,2013-03-10 17:27:00,
2013-03-10 13:31:00,76.8,56.8,30.11,East,79,2.0,2.0,50,0.00,,---,0.00,VWS V14.01,2013-03-10 17:31:00,
2013-03-10 13:32:00,76.9,56.9,30.11,ENE,63,3.0,3.0,50,0.00,,---,0.00,VWS V14.01,2013-03-10 17:32:00,
2013-03-10 13:34:00,77.1,57.0,30.11,ESE,111,4.0,4.0,50,0.00,,---,0.00,VWS V14.01,2013-03-10 17:34:00,
2013-03-10 13:36:00,77.3,56.1,30.11,ESE,115,3.0,8.0,48,0.00,,---,0.00,VWS V14.01,2013-03-10 17:36:00,
2013-03-10 13:37:00,77.4,56.2,30.11,NNE,27,5.0,7.0,48,0.00,,---,0.00,VWS V14.01,2013-03-10 17:37:00,
2013-03-10 13:39:00,77.4,56.2,30.11,NE,46,1.0,7.0,48,0.00,,---,0.00,VWS V14.01,2013-03-10 17:39:00,
2013-03-10 13:42:00,77.5,56.3,30.11,East,79,6.0,6.0,48,0.00,,---,0.00,VWS V14.01,2013-03-10 17:42:00,
2013-03-10 13:43:00,77.5,56.3,30.11,NNE,19,5.0,8.0,48,0.00,,---,0.00,VWS V14.01,2013-03-10 17:43:00,
2013-03-10 13:44:00,77.4,55.6,30.11,East,90,5.0,8.0,47,0.00,,---,0.00,VWS V14.01,2013-03-10 17:44:00,
2013-03-10 13:47:00,77.3,56.1,30.10,East,94,6.0,7.0,48,0.00,,---,0.00,VWS V14.01,2013-03-10 17:47:00,
2013-03-10 13:48:00,77.3,56.1,30.10,SE,133,2.0,7.0,48,0.00,,---,0.00,VWS V14.01,2013-03-10 17:48:00,
2013-03-10 13:49:00,77.4,56.2,30.10,ENE,69,3.0,7.0,48,0.00,,---,0.00,VWS V14.01,2013-03-10 17:49:00,
2013-03-10 13:50:00,77.5,56.9,30.10,East,80,2.0,7.0,49,0.00,,---,0.00,VWS V14.01,2013-03-10 17:50:00,
2013-03-10 13:52:00,77.6,56.4,30.10,East,85,3.0,6.0,48,0.00,,---,0.00,VWS V14.01,2013-03-10 17:52:00,
2013-03-10 13:54:00,77.6,56.4,30.10,ENE,69,5.0,6.0,48,0.00,,---,0.00,VWS V14.01,2013-03-10 17:54:00,
2013-03-10 13:55:00,77.7,56.5,30.10,ENE,63,3.0,6.0,48,0.00,,---,0.00,VWS V14.01,2013-03-10 17:55:00,
2013-03-10 13:57:00,77.8,56.6,30.10,East,98,7.0,7.0,48,0.00,,---,0.00,VWS V14.01,2013-03-10 17:57:00,
2013-03-10 13:58:00,77.8,56.6,30.10,ESE,108,3.0,7.0,48,0.00,,---,0.00,VWS V14.01,2013-03-10 17:58:00,
2013-03-10 14:00:00,77.9,57.2,30.10,SE,132,3.0,7.0,49,0.00,,---,0.00,VWS V14.01,2013-03-10 18:00:00,
2013-03-10 14:01:00,77.9,56.7,30.10,East,82,3.0,5.0,48,0.00,,---,0.00,VWS V14.01,2013-03-10 18:01:00,
2013-03-10 14:03:00,77.9,56.7,30.09,SSE,167,2.0,5.0,48,0.00,,---,0.00,VWS V14.01,2013-03-10 18:03:00,
2013-03-10 14:04:00,77.9,56.7,30.09,East,96,8.0,8.0,48,0.00,,---,0.00,VWS V14.01,2013-03-10 18:04:00,
2013-03-10 14:07:00,78.0,56.7,30.09,NE,51,2.0,5.0,48,0.00,,---,0.00,VWS V14.01,2013-03-10 18:07:00,
2013-03-10 14:08:00,78.0,56.7,30.09,NE,54,4.0,5.0,48,0.00,,---,0.00,VWS V14.01,2013-03-10 18:08:00,
2013-03-10 14:09:00,78.1,56.8,30.09,ENE,62,4.0,7.0,48,0.00,,---,0.00,VWS V14.01,2013-03-10 18:09:00,
2013-03-10 14:12:00,78.1,57.4,30.09,NE,42,4.0,4.0,49,0.00,,---,0.00,VWS V14.01,2013-03-10 18:12:00,
2013-03-10 14:14:00,78.2,56.9,30.09,ENE,63,4.0,8.0,48,0.00,,---,0.00,VWS V14.01,2013-03-10 18:14:00,
2013-03-10 14:15:00,78.2,56.9,30.09,ESE,121,3.0,8.0,48,0.00,,---,0.00,VWS V14.01,2013-03-10 18:15:00,
2013-03-10 14:17:00,78.2,56.9,30.09,East,86,3.0,5.0,48,0.00,,---,0.00,VWS V14.01,2013-03-10 18:17:00,
2013-03-10 14:18:00,78.2,56.9,30.09,SE,136,1.0,8.0,48,0.00,,---,0.00,VWS V14.01,2013-03-10 18:18:00,
2013-03-10 14:20:00,78.4,57.1,30.09,NE,39,8.0,8.0,48,0.00,,---,0.00,VWS V14.01,2013-03-10 18:20:00,
2013-03-10 14:21:00,78.5,56.0,30.09,East,83,7.0,7.0,46,0.00,,---,0.00,VWS V14.01,2013-03-10 18:21:00,
2013-03-10 14:22:00,78.4,55.9,30.09,NE,47,4.0,7.0,46,0.00,,---,0.00,VWS V14.01,2013-03-10 18:22:00,
2013-03-10 14:23:00,78.3,55.8,30.09,ENE,59,3.0,7.0,46,0.00,,---,0.00,VWS V14.01,2013-03-10 18:23:00,
2013-03-10 14:26:00,78.2,56.3,30.08,NNE,25,3.0,7.0,47,0.00,,---,0.00,VWS V14.01,2013-03-10 18:26:00,
2013-03-10 14:27:00,78.2,56.3,30.08,NE,37,3.0,4.0,47,0.00,,---,0.00,VWS V14.01,2013-03-10 18:27:00,
2013-03-10 14:28:00,78.3,56.4,30.08,East,80,2.0,4.0,47,0.00,,---,0.00,VWS V14.01,2013-03-10 18:28:00,
2013-03-10 14:31:00,78.4,56.5,30.08,ENE,59,3.0,7.0,47,0.00,,---,0.00,VWS V14.01,2013-03-10 18:31:00,
2013-03-10 14:32:00,78.4,56.5,30.08,ESE,111,3.0,4.0,47,0.00,,---,0.00,VWS V14.01,2013-03-10 18:32:00,
2013-03-10 14:33:00,78.5,56.6,30.08,NNE,33,3.0,4.0,47,0.00,,---,0.00,VWS V14.01,2013-03-10 18:33:00,
2013-03-10 14:34:00,78.5,56.6,30.08,NNE,13,2.0,4.0,47,0.00,,---,0.00,VWS V14.01,2013-03-10 18:34:00,
2013-03-10 14:36:00,78.4,56.5,30.08,ENE,65,1.0,8.0,47,0.00,,---,0.00,VWS V14.01,2013-03-10 18:36:00,
2013-03-10 14:37:00,78.4,57.1,30.08,East,96,3.0,6.0,48,0.00,,---,0.00,VWS V14.01,2013-03-10 18:37:00,
2013-03-10 14:39:00,78.4,57.1,30.08,ENE,75,3.0,6.0,48,0.00,,---,0.00,VWS V14.01,2013-03-10 18:39:00,
2013-03-10 14:40:00,78.5,57.2,30.08,East,84,2.0,6.0,48,0.00,,---,0.00,VWS V14.01,2013-03-10 18:40:00,
2013-03-10 14:41:00,78.5,57.2,30.08,NE,48,2.0,6.0,48,0.00,,---,0.00,VWS V14.01,2013-03-10 18:41:00,
2013-03-10 14:44:00,78.9,57.0,30.08,NE,39,2.0,5.0,47,0.00,,---,0.00,VWS V14.01,2013-03-10 18:44:00,
2013-03-10 14:45:00,78.9,57.0,30.08,NE,52,2.0,5.0,47,0.00,,---,0.00,VWS V14.01,2013-03-10 18:45:00,
2013-03-10 14:46:00,78.9,57.0,30.08,NE,43,3.0,3.0,47,0.00,,---,0.00,VWS V14.01,2013-03-10 18:46:00,
2013-03-10 14:49:00,78.8,56.9,30.08,NE,48,2.0,12.0,47,0.00,,---,0.00,VWS V14.01,2013-03-10 18:49:00,
2013-03-10 14:50:00,78.8,56.9,30.08,NNE,28,4.0,12.0,47,0.00,,---,0.00,VWS V14.01,2013-03-10 18:50:00,
2013-03-10 14:51:00,78.8,56.9,30.08,NNE,22,1.0,2.0,47,0.00,,---,0.00,VWS V14.01,2013-03-10 18:51:00,
2013-03-10 14:53:00,78.9,57.0,30.08,NE,44,3.0,3.0,47,0.00,,---,0.00,VWS V14.01,2013-03-10 18:53:00,
2013-03-10 14:54:00,79.0,57.7,30.08,East,84,2.0,4.0,48,0.00,,---,0.00,VWS V14.01,2013-03-10 18:54:00,
2013-03-10 14:56:00,79.2,57.2,30.08,NNE,31,2.0,5.0,47,0.00,,---,0.00,VWS V14.01,2013-03-10 18:56:00,
2013-03-10 14:57:00,79.3,57.3,30.08,NNE,20,4.0,4.0,47,0.00,,---,0.00,VWS V14.01,2013-03-10 18:57:00,
2013-03-10 14:59:00,79.5,57.5,30.08,ENE,59,3.0,5.0,47,0.00,,---,0.00,VWS V14.01,2013-03-10 18:59:00,
2013-03-10 15:01:00,79.6,57.0,30.08,East,80,0.0,6.0,46,0.00,,---,0.00,VWS V14.01,2013-03-10 19:01:00,
2013-03-10 15:02:00,79.6,57.0,30.08,SE,132,1.0,10.0,46,0.00,,---,0.00,VWS V14.01,2013-03-10 19:02:00,
2013-03-10 15:04:00,79.5,57.5,30.08,East,84,1.0,10.0,47,0.00,,---,0.00,VWS V14.01,2013-03-10 19:04:00,
2013-03-10 15:06:00,79.5,56.9,30.08,East,92,5.0,10.0,46,0.00,,---,0.00,VWS V14.01,2013-03-10 19:06:00,
2013-03-10 15:08:00,79.4,56.8,30.08,NE,54,1.0,5.0,46,0.00,,---,0.00,VWS V14.01,2013-03-10 19:08:00,
2013-03-10 15:11:00,79.4,56.8,30.08,ENE,72,3.0,7.0,46,0.00,,---,0.00,VWS V14.01,2013-03-10 19:11:00,
2013-03-10 15:12:00,79.4,57.4,30.08,NE,48,4.0,4.0,47,0.00,,---,0.00,VWS V14.01,2013-03-10 19:12:00,
2013-03-10 15:13:00,79.3,56.8,30.08,NE,38,2.0,5.0,46,0.00,,---,0.00,VWS V14.01,2013-03-10 19:13:00,
2013-03-10 15:16:00,79.3,57.3,30.07,NNE,23,3.0,3.0,47,0.00,,---,0.00,VWS V14.01,2013-03-10 19:16:00,
2013-03-10 15:17:00,79.4,57.4,30.07,NNE,22,2.0,4.0,47,0.00,,---,0.00,VWS V14.01,2013-03-10 19:17:00,
2013-03-10 15:18:00,79.4,57.4,30.07,NE,42,5.0,7.0,47,0.00,,---,0.00,VWS V14.01,2013-03-10 19:18:00,
2013-03-10 15:21:00,79.5,57.5,30.08,East,82,2.0,2.0,47,0.00,,---,0.00,VWS V14.01,2013-03-10 19:21:00,
2013-03-10 15:22:00,79.6,57.6,30.07,ENE,65,3.0,7.0,47,0.00,,---,0.00,VWS V14.01,2013-03-10 19:22:00,
2013-03-10 15:24:00,79.7,57.7,30.08,NE,38,4.0,7.0,47,0.00,,---,0.00,VWS V14.01,2013-03-10 19:24:00,
2013-03-10 15:27:00,80.0,57.4,30.07,NE,51,2.0,3.0,46,0.00,,---,0.00,VWS V14.01,2013-03-10 19:27:00,
2013-03-10 15:29:00,80.1,57.5,30.07,NE,36,2.0,5.0,46,0.00,,---,0.00,VWS V14.01,2013-03-10 19:29:00,
2013-03-10 15:32:00,80.1,58.1,30.07,ENE,70,3.0,4.0,47,0.00,,---,0.00,VWS V14.01,2013-03-10 19:32:00,
2013-03-10 15:34:00,80.3,57.7,30.07,ENE,70,0.0,4.0,46,0.00,,---,0.00,VWS V14.01,2013-03-10 19:34:00,
2013-03-10 15:36:00,80.5,59.0,30.07,ENE,61,2.0,4.0,48,0.00,,---,0.00,VWS V14.01,2013-03-10 19:36:00,
2013-03-10 15:37:00,80.8,58.7,30.07,ENE,73,2.0,2.0,47,0.00,,---,0.00,VWS V14.01,2013-03-10 19:37:00,
2013-03-10 15:41:00,81.3,58.6,30.07,NNE,26,4.0,4.0,46,0.00,,---,0.00,VWS V14.01,2013-03-10 19:41:00,
2013-03-10 15:43:00,81.5,58.8,30.07,NE,34,3.0,4.0,46,0.00,,---,0.00,VWS V14.01,2013-03-10 19:43:00,
2013-03-10 15:47:00,81.7,58.3,30.07,NE,51,2.0,2.0,45,0.00,,---,0.00,VWS V14.01,2013-03-10 19:47:00,
2013-03-10 15:48:00,81.7,58.3,30.07,North,5,3.0,3.0,45,0.00,,---,0.00,VWS V14.01,2013-03-10 19:48:00,
2013-03-10 15:49:00,81.7,58.3,30.07,NNE,30,2.0,3.0,45,0.00,,---,0.00,VWS V14.01,2013-03-10 19:49:00,
2013-03-10 15:53:00,81.8,57.8,30.06,NE,46,2.0,6.0,44,0.00,,---,0.00,VWS V14.01,2013-03-10 19:53:00,
2013-03-10 15:54:00,81.7,57.7,30.06,NE,52,1.0,6.0,44,0.00,,---,0.00,VWS V14.01,2013-03-10 19:54:00,
2013-03-10 15:59:00,81.9,57.9,30.06,NNE,33,4.0,5.0,44,0.00,,---,0.00,VWS V14.01,2013-03-10 19:59:00,
2013-03-10 16:00:00,81.9,57.9,30.06,ENE,78,4.0,5.0,44,0.00,,---,0.00,VWS V14.01,2013-03-10 20:00:00,
2013-03-10 16:02:00,82.0,58.0,30.06,NE,37,2.0,3.0,44,0.00,,---,0.00,VWS V14.01,2013-03-10 20:02:00,
2013-03-10 16:05:00,82.1,58.0,30.06,NNE,17,4.0,5.0,44,0.00,,---,0.00,VWS V14.01,2013-03-10 20:05:00,
2013-03-10 16:07:00,82.0,58.0,30.06,NNE,27,3.0,4.0,44,0.00,,---,0.00,VWS V14.01,2013-03-10 20:07:00,
2013-03-10 16:11:00,81.7,58.3,30.06,NE,46,2.0,4.0,45,0.00,,---,0.00,VWS V14.01,2013-03-10 20:11:00,
2013-03-10 16:12:00,81.6,57.6,30.06,NNE,32,5.0,5.0,44,0.00,,---,0.00,VWS V14.01,2013-03-10 20:12:00,
2013-03-10 16:13:00,81.3,57.3,30.06,NE,49,2.0,5.0,44,0.00,,---,0.00,VWS V14.01,2013-03-10 20:13:00,
2013-03-10 16:16:00,80.9,57.6,30.06,NNW,348,1.0,5.0,45,0.00,,---,0.00,VWS V14.01,2013-03-10 20:16:00,
2013-03-10 16:17:00,80.8,58.1,30.06,North,350,1.0,2.0,46,0.00,,---,0.00,VWS V14.01,2013-03-10 20:17:00,
2013-03-10 16:18:00,80.9,58.2,30.06,NW,321,1.0,2.0,46,0.00,,---,0.00,VWS V14.01,2013-03-10 20:18:00,
2013-03-10 16:19:00,80.9,58.2,30.06,East,88,1.0,7.0,46,0.00,,---,0.00,VWS V14.01,2013-03-10 20:19:00,
2013-03-10 16:21:00,80.8,57.5,30.06,WNW,292,1.0,7.0,45,0.00,,---,0.00,VWS V14.01,2013-03-10 20:21:00,
2013-03-10 16:23:00,80.5,57.2,30.06,SW,225,3.0,5.0,45,0.00,,---,0.00,VWS V14.01,2013-03-10 20:23:00,
2013-03-10 16:24:00,79.6,58.8,30.06,SW,226,2.0,5.0,49,0.00,,---,0.00,VWS V14.01,2013-03-10 20:24:00,
2013-03-10 16:26:00,79.1,59.4,30.06,SW,218,2.0,5.0,51,0.00,,---,0.00,VWS V14.01,2013-03-10 20:26:00,
2013-03-10 16:29:00,78.4,59.3,30.06,WSW,238,1.0,5.0,52,0.00,,---,0.00,VWS V14.01,2013-03-10 20:29:00,
2013-03-10 16:31:00,78.0,59.0,30.06,WSW,244,1.0,6.0,52,0.00,,---,0.00,VWS V14.01,2013-03-10 20:31:00,
2013-03-10 16:32:00,77.7,59.2,30.06,WSW,244,3.0,3.0,53,0.00,,---,0.00,VWS V14.01,2013-03-10 20:32:00,
2013-03-10 16:34:00,76.7,58.8,30.06,SW,233,2.0,5.0,54,0.00,,---,0.00,VWS V14.01,2013-03-10 20:34:00,
2013-03-10 16:37:00,76.0,58.7,30.06,SW,233,1.0,2.0,55,0.00,,---,0.00,VWS V14.01,2013-03-10 20:37:00,
2013-03-10 16:38:00,75.8,59.0,30.06,WSW,252,0.0,3.0,56,0.00,,---,0.00,VWS V14.01,2013-03-10 20:38:00,
2013-03-10 16:40:00,75.5,59.2,30.06,SW,232,3.0,4.0,57,0.00,,---,0.00,VWS V14.01,2013-03-10 20:40:00,
2013-03-10 16:42:00,75.5,59.2,30.06,South,170,1.0,5.0,57,0.00,,---,0.00,VWS V14.01,2013-03-10 20:42:00,
2013-03-10 16:45:00,75.5,59.2,30.06,SW,234,1.0,5.0,57,0.00,,---,0.00,VWS V14.01,2013-03-10 20:45:00,
2013-03-10 16:48:00,75.1,58.8,30.06,SW,218,2.0,8.0,57,0.00,,---,0.00,VWS V14.01,2013-03-10 20:48:00,
2013-03-10 16:50:00,75.1,59.8,30.06,SW,215,2.0,8.0,59,0.00,,---,0.00,VWS V14.01,2013-03-10 20:50:00,
2013-03-10 16:52:00,75.2,59.4,30.06,South,182,3.0,4.0,58,0.00,,---,0.00,VWS V14.01,2013-03-10 20:52:00,
2013-03-10 16:53:00,75.2,59.9,30.06,South,182,2.0,4.0,59,0.00,,---,0.00,VWS V14.01,2013-03-10 20:53:00,
2013-03-10 16:56:00,75.2,59.4,30.06,WSW,250,2.0,4.0,58,0.00,,---,0.00,VWS V14.01,2013-03-10 20:56:00,
2013-03-10 16:57:00,75.2,59.4,30.06,West,269,2.0,4.0,58,0.00,,---,0.00,VWS V14.01,2013-03-10 20:57:00,
2013-03-10 16:58:00,75.1,59.3,30.06,North,360,7.0,8.0,58,0.00,,---,0.00,VWS V14.01,2013-03-10 20:58:00,
2013-03-10 17:01:00,74.6,58.9,30.06,WSW,255,1.0,8.0,58,0.00,,---,0.00,VWS V14.01,2013-03-10 21:01:00,
2013-03-10 17:02:00,74.4,58.7,30.06,WSW,256,1.0,5.0,58,0.00,,---,0.00,VWS V14.01,2013-03-10 21:02:00,
2013-03-10 17:03:00,74.4,59.2,30.06,SW,229,3.0,5.0,59,0.00,,---,0.00,VWS V14.01,2013-03-10 21:03:00,
2013-03-10 17:07:00,74.1,59.3,30.06,West,275,2.0,7.0,60,0.00,,---,0.00,VWS V14.01,2013-03-10 21:07:00,
2013-03-10 17:08:00,74.0,59.2,30.06,West,271,5.0,7.0,60,0.00,,---,0.00,VWS V14.01,2013-03-10 21:08:00,
2013-03-10 17:09:00,74.0,59.2,30.06,West,267,1.0,7.0,60,0.00,,---,0.00,VWS V14.01,2013-03-10 21:09:00,
2013-03-10 17:10:00,74.1,59.3,30.06,South,172,1.0,7.0,60,0.00,,---,0.00,VWS V14.01,2013-03-10 21:10:00,
2013-03-10 17:13:00,74.2,59.0,30.06,West,262,2.0,9.0,59,0.00,,---,0.00,VWS V14.01,2013-03-10 21:13:00,
2013-03-10 17:14:00,73.9,58.7,30.06,SW,229,2.0,9.0,59,0.00,,---,0.00,VWS V14.01,2013-03-10 21:14:00,
2013-03-10 17:15:00,73.8,58.6,30.05,SW,225,5.0,9.0,59,0.00,,---,0.00,VWS V14.01,2013-03-10 21:15:00,
2013-03-10 17:16:00,73.6,58.4,30.05,SSW,211,3.0,9.0,59,0.00,,---,0.00,VWS V14.01,2013-03-10 21:16:00,
2013-03-10 17:19:00,73.3,58.6,30.05,SSW,199,2.0,7.0,60,0.00,,---,0.00,VWS V14.01,2013-03-10 21:19:00,
2013-03-10 17:20:00,73.3,58.6,30.05,SSW,203,6.0,7.0,60,0.00,,---,0.00,VWS V14.01,2013-03-10 21:20:00,
2013-03-10 17:22:00,73.4,58.7,30.05,South,178,1.0,4.0,60,0.00,,---,0.00,VWS V14.01,2013-03-10 21:22:00,
2013-03-10 17:24:00,73.6,58.9,30.05,SSW,192,1.0,5.0,60,0.00,,---,0.00,VWS V14.01,2013-03-10 21:24:00,
2013-03-10 17:25:00,73.7,59.0,30.05,South,169,2.0,6.0,60,0.00,,---,0.00,VWS V14.01,2013-03-10 21:25:00,
2013-03-10 17:27:00,73.9,59.2,30.05,SSW,198,3.0,5.0,60,0.00,,---,0.00,VWS V14.01,2013-03-10 21:27:00,
2013-03-10 17:30:00,74.0,58.8,30.05,WSW,249,4.0,5.0,59,0.00,,---,0.00,VWS V14.01,2013-03-10 21:30:00,
2013-03-10 17:33:00,74.0,59.2,30.05,SSW,198,2.0,4.0,60,0.00,,---,0.00,VWS V14.01,2013-03-10 21:33:00,
2013-03-10 17:35:00,74.1,59.3,30.05,SSW,196,2.0,4.0,60,0.00,,---,0.00,VWS V14.01,2013-03-10 21:35:00,
2013-03-10 17:38:00,74.0,58.8,30.05,SW,227,4.0,7.0,59,0.00,,---,0.00,VWS V14.01,2013-03-10 21:38:00,
2013-03-10 17:39:00,74.0,58.8,30.05,WSW,251,1.0,7.0,59,0.00,,---,0.00,VWS V14.01,2013-03-10 21:39:00,
2013-03-10 17:40:00,73.9,58.7,30.05,WSW,244,1.0,7.0,59,0.00,,---,0.00,VWS V14.01,2013-03-10 21:40:00,
2013-03-10 17:42:00,73.9,58.7,30.05,SW,222,4.0,4.0,59,0.00,,---,0.00,VWS V14.01,2013-03-10 21:42:00,
2013-03-10 17:43:00,74.0,59.2,30.05,SSW,213,1.0,4.0,60,0.00,,---,0.00,VWS V14.01,2013-03-10 21:43:00,
2013-03-10 17:44:00,74.1,59.3,30.05,West,272,5.0,5.0,60,0.00,,---,0.00,VWS V14.01,2013-03-10 21:44:00,
2013-03-10 17:46:00,74.1,58.9,30.05,SSW,192,2.0,4.0,59,0.00,,---,0.00,VWS V14.01,2013-03-10 21:46:00,
2013-03-10 17:48:00,74.0,59.2,30.05,SSW,192,4.0,4.0,60,0.00,,---,0.00,VWS V14.01,2013-03-10 21:48:00,
2013-03-10 17:49:00,74.0,59.2,30.05,SW,234,4.0,4.0,60,0.00,,---,0.00,VWS V14.01,2013-03-10 21:49:00,
2013-03-10 17:50:00,74.0,58.8,30.05,WSW,239,5.0,6.0,59,0.00,,---,0.00,VWS V14.01,2013-03-10 21:50:00,
2013-03-10 17:54:00,73.8,58.6,30.05,SW,232,2.0,6.0,59,0.00,,---,0.00,VWS V14.01,2013-03-10 21:54:00,
2013-03-10 17:56:00,73.6,58.4,30.05,WSW,239,3.0,7.0,59,0.00,,---,0.00,VWS V14.01,2013-03-10 21:56:00,
2013-03-10 17:59:00,73.5,58.3,30.05,SSE,165,5.0,5.0,59,0.00,,---,0.00,VWS V14.01,2013-03-10 21:59:00,
2013-03-10 18:00:00,73.5,58.3,30.05,South,186,3.0,5.0,59,0.00,,---,0.00,VWS V14.01,2013-03-10 22:00:00,
2013-03-10 18:01:00,73.5,58.3,30.05,South,180,3.0,3.0,59,0.00,,---,0.00,VWS V14.01,2013-03-10 22:01:00,
2013-03-10 18:04:00,73.4,58.2,30.05,South,190,2.0,4.0,59,0.00,,---,0.00,VWS V14.01,2013-03-10 22:04:00,
2013-03-10 18:05:00,73.3,58.1,30.05,SSE,160,2.0,8.0,59,0.00,,---,0.00,VWS V14.01,2013-03-10 22:05:00,
2013-03-10 18:06:00,73.3,58.1,30.05,South,188,1.0,3.0,59,0.00,,---,0.00,VWS V14.01,2013-03-10 22:06:00,
2013-03-10 18:07:00,73.3,58.1,30.05,South,186,1.0,3.0,59,0.00,,---,0.00,VWS V14.01,2013-03-10 22:07:00,
2013-03-10 18:10:00,73.2,58.0,30.05,South,182,2.0,6.0,59,0.00,,---,0.00,VWS V14.01,2013-03-10 22:10:00,
2013-03-10 18:12:00,73.1,58.4,30.05,SSW,192,2.0,3.0,60,0.00,,---,0.00,VWS V14.01,2013-03-10 22:12:00,
2013-03-10 18:15:00,73.1,57.9,30.05,SSW,192,1.0,3.0,59,0.00,,---,0.00,VWS V14.01,2013-03-10 22:15:00,
2013-03-10 18:18:00,73.0,58.3,30.05,South,183,2.0,2.0,60,0.00,,---,0.00,VWS V14.01,2013-03-10 22:18:00,
2013-03-10 18:20:00,73.0,57.8,30.05,South,183,2.0,4.0,59,0.00,,---,0.00,VWS V14.01,2013-03-10 22:20:00,
2013-03-10 18:21:00,73.0,57.8,30.05,South,183,3.0,4.0,59,0.00,,---,0.00,VWS V14.01,2013-03-10 22:21:00,
2013-03-10 18:23:00,73.1,57.9,30.05,South,185,3.0,4.0,59,0.00,,---,0.00,VWS V14.01,2013-03-10 22:23:00,
2013-03-10 18:26:00,73.1,57.9,30.05,South,184,4.0,4.0,59,0.00,,---,0.00,VWS V14.01,2013-03-10 22:26:00,
2013-03-10 18:28:00,73.3,58.1,30.05,South,190,1.0,4.0,59,0.00,,---,0.00,VWS V14.01,2013-03-10 22:28:00,
2013-03-10 18:29:00,73.3,58.1,30.05,South,190,1.0,4.0,59,0.00,,---,0.00,VWS V14.01,2013-03-10 22:29:00,
2013-03-10 18:30:00,73.4,58.2,30.05,South,190,1.0,4.0,59,0.00,,---,0.00,VWS V14.01,2013-03-10 22:30:00,
2013-03-10 18:31:00,73.5,57.8,30.05,South,180,1.0,3.0,58,0.00,,---,0.00,VWS V14.01,2013-03-10 22:31:00,
2013-03-10 18:34:00,73.6,58.4,30.05,South,182,1.0,3.0,59,0.00,,---,0.00,VWS V14.01,2013-03-10 22:34:00,
2013-03-10 18:35:00,73.7,58.0,30.05,South,182,0.0,3.0,58,0.00,,---,0.00,VWS V14.01,2013-03-10 22:35:00,
2013-03-10 18:37:00,73.8,58.6,30.05,South,182,0.0,0.0,59,0.00,,---,0.00,VWS V14.01,2013-03-10 22:37:00,
2013-03-10 18:39:00,74.0,58.3,30.05,South,182,0.0,2.0,58,0.00,,---,0.00,VWS V14.01,2013-03-10 22:39:00,
2013-03-10 18:40:00,74.1,57.9,30.05,South,182,0.0,2.0,57,0.00,,---,0.00,VWS V14.01,2013-03-10 22:40:00,
2013-03-10 18:42:00,74.1,57.9,30.05,South,182,0.0,0.0,57,0.00,,---,0.00,VWS V14.01,2013-03-10 22:42:00,
2013-03-10 18:43:00,74.1,57.9,30.05,South,182,1.0,1.0,57,0.00,,---,0.00,VWS V14.01,2013-03-10 22:43:00,
2013-03-10 18:44:00,74.1,57.9,30.05,South,182,2.0,2.0,57,0.00,,---,0.00,VWS V14.01,2013-03-10 22:44:00,
2013-03-10 18:47:00,73.8,58.1,30.05,WNW,292,1.0,3.0,58,0.00,,---,0.00,VWS V14.01,2013-03-10 22:47:00,
2013-03-10 18:49:00,73.4,58.2,30.05,WNW,292,0.0,3.0,59,0.00,,---,0.00,VWS V14.01,2013-03-10 22:49:00,
2013-03-10 18:50:00,73.3,58.1,30.05,WNW,292,0.0,3.0,59,0.00,,---,0.00,VWS V14.01,2013-03-10 22:50:00,
2013-03-10 18:53:00,72.8,58.1,30.05,WNW,292,0.0,1.0,60,0.00,,---,0.00,VWS V14.01,2013-03-10 22:53:00,
2013-03-10 18:55:00,72.4,58.2,30.06,WNW,292,0.0,1.0,61,0.00,,---,0.00,VWS V14.01,2013-03-10 22:55:00,
2013-03-10 18:57:00,72.1,57.9,30.06,WNW,292,2.0,2.0,61,0.00,,---,0.00,VWS V14.01,2013-03-10 22:57:00,
2013-03-10 18:58:00,72.0,58.3,30.06,WNW,292,1.0,2.0,62,0.00,,---,0.00,VWS V14.01,2013-03-10 22:58:00,
2013-03-10 18:59:00,71.8,58.1,30.06,West,266,0.0,4.0,62,0.00,,---,0.00,VWS V14.01,2013-03-10 22:59:00,
2013-03-10 19:01:00,71.5,58.3,30.06,West,266,1.0,4.0,63,0.00,,---,0.00,VWS V14.01,2013-03-10 23:01:00,
2013-03-10 19:03:00,71.2,58.0,30.06,West,270,0.0,2.0,63,0.00,,---,0.00,VWS V14.01,2013-03-10 23:03:00,
2013-03-10 19:05:00,70.8,57.6,30.06,West,269,1.0,2.0,63,0.00,,---,0.00,VWS V14.01,2013-03-10 23:05:00,
2013-03-10 19:08:00,70.4,57.7,30.07,SW,227,0.0,1.0,64,0.00,,---,0.00,VWS V14.01,2013-03-10 23:08:00,
2013-03-10 19:10:00,70.1,57.8,30.07,WSW,246,1.0,2.0,65,0.00,,---,0.00,VWS V14.01,2013-03-10 23:10:00,
2013-03-10 19:13:00,69.6,57.8,30.07,WSW,246,0.0,2.0,66,0.00,,---,0.00,VWS V14.01,2013-03-10 23:13:00,
2013-03-10 19:14:00,69.6,57.8,30.07,WSW,246,0.0,2.0,66,0.00,,---,0.00,VWS V14.01,2013-03-10 23:14:00,
2013-03-10 19:15:00,69.4,57.6,30.07,WSW,246,0.0,2.0,66,0.00,,---,0.00,VWS V14.01,2013-03-10 23:15:00,
2013-03-10 19:19:00,69.0,57.6,30.07,West,262,1.0,3.0,67,0.00,,---,0.00,VWS V14.01,2013-03-10 23:19:00,
2013-03-10 19:20:00,68.9,57.5,30.07,WNW,283,0.0,3.0,67,0.00,,---,0.00,VWS V14.01,2013-03-10 23:20:00,
2013-03-10 19:22:00,68.7,57.7,30.07,WNW,283,0.0,2.0,68,0.00,,---,0.00,VWS V14.01,2013-03-10 23:22:00,
2013-03-10 19:25:00,68.4,57.4,30.07,WNW,283,0.0,2.0,68,0.00,,---,0.00,VWS V14.01,2013-03-10 23:25:00,
2013-03-10 19:29:00,68.0,57.5,30.07,WNW,295,0.0,2.0,69,0.00,,---,0.00,VWS V14.01,2013-03-10 23:29:00,
2013-03-10 19:30:00,67.9,57.4,30.07,WSW,250,1.0,3.0,69,0.00,,---,0.00,VWS V14.01,2013-03-10 23:30:00,
2013-03-10 19:31:00,67.9,57.4,30.07,WSW,250,0.0,1.0,69,0.00,,---,0.00,VWS V14.01,2013-03-10 23:31:00,
2013-03-10 19:36:00,67.5,57.4,30.07,WNW,295,0.0,3.0,70,0.00,,---,0.00,VWS V14.01,2013-03-10 23:36:00,
2013-03-10 19:37:00,67.4,57.7,30.07,WNW,294,0.0,0.0,71,0.00,,---,0.00,VWS V14.01,2013-03-10 23:37:00,
2013-03-10 19:41:00,67.2,57.5,30.07,WSW,244,0.0,1.0,71,0.00,,---,0.00,VWS V14.01,2013-03-10 23:41:00,
2013-03-10 19:42:00,67.1,57.4,30.07,WSW,244,1.0,1.0,71,0.00,,---,0.00,VWS V14.01,2013-03-10 23:42:00,
2013-03-10 19:43:00,67.1,57.8,30.07,WSW,244,0.0,1.0,72,0.00,,---,0.00,VWS V14.01,2013-03-10 23:43:00,
2013-03-10 19:46:00,66.9,57.6,30.07,WSW,244,0.0,0.0,72,0.00,,---,0.00,VWS V14.01,2013-03-10 23:46:00,
2013-03-10 19:47:00,66.9,57.6,30.08,WSW,244,0.0,0.0,72,0.00,,---,0.00,VWS V14.01,2013-03-10 23:47:00,
2013-03-10 19:48:00,66.8,57.5,30.08,WSW,244,1.0,1.0,72,0.00,,---,0.00,VWS V14.01,2013-03-10 23:48:00,
2013-03-10 19:52:00,66.6,57.3,30.08,WSW,244,0.0,1.0,72,0.00,,---,0.00,VWS V14.01,2013-03-10 23:52:00,
2013-03-10 19:53:00,66.6,57.7,30.07,WNW,301,1.0,2.0,73,0.00,,---,0.00,VWS V14.01,2013-03-10 23:53:00,
2013-03-10 19:54:00,66.5,57.6,30.07,WNW,301,1.0,2.0,73,0.00,,---,0.00,VWS V14.01,2013-03-10 23:54:00,
2013-03-10 19:58:00,66.4,57.5,30.08,WNW,299,0.0,0.0,73,0.00,,---,0.00,VWS V14.01,2013-03-10 23:58:00,
2013-03-10 19:59:00,66.3,57.4,30.08,WNW,299,0.0,0.0,73,0.00,,---,0.00,VWS V14.01,2013-03-10 23:59:00,
2013-03-10 20:00:00,66.3,57.4,30.08,WNW,299,0.0,0.0,73,0.00,,---,0.00,VWS V14.01,2013-03-11 00:00:00,
2013-03-10 20:03:00,66.2,57.3,30.08,WNW,299,0.0,0.0,73,0.00,,---,0.00,VWS V14.01,2013-03-11 00:03:00,
2013-03-10 20:04:00,66.1,57.2,30.08,WNW,299,0.0,0.0,73,0.00,,---,0.00,VWS V14.01,2013-03-11 00:04:00,
2013-03-10 20:05:00,66.1,57.2,30.08,WNW,299,0.0,0.0,73,0.00,,---,0.00,VWS V14.01,2013-03-11 00:05:00,
2013-03-10 20:06:00,66.1,57.2,30.08,WNW,299,0.0,0.0,73,0.00,,---,0.00,VWS V14.01,2013-03-11 00:06:00,
2013-03-10 20:10:00,65.9,57.4,30.08,WNW,299,0.0,0.0,74,0.00,,---,0.00,VWS V14.01,2013-03-11 00:10:00,
2013-03-10 20:11:00,65.9,57.4,30.08,WNW,299,0.0,0.0,74,0.00,,---,0.00,VWS V14.01,2013-03-11 00:11:00,
2013-03-10 20:15:00,65.8,57.3,30.08,WNW,299,0.0,0.0,74,0.00,,---,0.00,VWS V14.01,2013-03-11 00:15:00,
2013-03-10 20:16:00,65.7,57.2,30.08,WNW,299,0.0,1.0,74,0.00,,---,0.00,VWS V14.01,2013-03-11 00:16:00,
2013-03-10 20:18:00,65.7,57.2,30.08,WNW,299,0.0,1.0,74,0.00,,---,0.00,VWS V14.01,2013-03-11 00:18:00,
2013-03-10 20:20:00,65.7,57.6,30.08,WNW,299,0.0,1.0,75,0.00,,---,0.00,VWS V14.01,2013-03-11 00:20:00,
2013-03-10 20:22:00,65.6,57.5,30.08,WNW,299,0.0,0.0,75,0.00,,---,0.00,VWS V14.01,2013-03-11 00:22:00,
2013-03-10 20:24:00,65.6,57.5,30.08,WNW,299,0.0,0.0,75,0.00,,---,0.00,VWS V14.01,2013-03-11 00:24:00,
2013-03-10 20:26:00,65.6,57.5,30.08,WNW,299,0.0,0.0,75,0.00,,---,0.00,VWS V14.01,2013-03-11 00:26:00,
2013-03-10 20:27:00,65.6,57.5,30.08,WNW,299,0.0,0.0,75,0.00,,---,0.00,VWS V14.01,2013-03-11 00:27:00,
2013-03-10 20:30:00,65.6,57.8,30.08,WNW,299,0.0,0.0,76,0.00,,---,0.00,VWS V14.01,2013-03-11 00:30:00,
2013-03-10 20:31:00,65.6,57.8,30.08,WNW,299,0.0,0.0,76,0.00,,---,0.00,VWS V14.01,2013-03-11 00:31:00,
2013-03-10 20:32:00,65.6,57.8,30.08,WNW,299,0.0,0.0,76,0.00,,---,0.00,VWS V14.01,2013-03-11 00:32:00,
2013-03-10 20:33:00,65.5,57.7,30.08,WNW,299,0.0,0.0,76,0.00,,---,0.00,VWS V14.01,2013-03-11 00:33:00,
2013-03-10 20:35:00,65.5,57.7,30.08,WNW,299,0.0,0.0,76,0.00,,---,0.00,VWS V14.01,2013-03-11 00:35:00,
2013-03-10 20:37:00,65.5,57.7,30.08,WNW,299,0.0,0.0,76,0.00,,---,0.00,VWS V14.01,2013-03-11 00:37:00,
2013-03-10 20:40:00,65.5,58.1,30.08,WNW,299,0.0,1.0,77,0.00,,---,0.00,VWS V14.01,2013-03-11 00:40:00,
2013-03-10 20:42:00,65.5,58.1,30.08,WNW,299,0.0,0.0,77,0.00,,---,0.00,VWS V14.01,2013-03-11 00:42:00,
2013-03-10 20:43:00,65.5,58.1,30.08,WNW,299,0.0,0.0,77,0.00,,---,0.00,VWS V14.01,2013-03-11 00:43:00,
2013-03-10 20:46:00,65.4,58.0,30.08,WNW,299,0.0,0.0,77,0.00,,---,0.00,VWS V14.01,2013-03-11 00:46:00,
2013-03-10 20:47:00,65.4,58.0,30.08,WNW,299,0.0,0.0,77,0.00,,---,0.00,VWS V14.01,2013-03-11 00:47:00,
2013-03-10 20:49:00,65.4,58.0,30.08,WNW,299,0.0,0.0,77,0.00,,---,0.00,VWS V14.01,2013-03-11 00:49:00,
2013-03-10 20:51:00,65.4,58.0,30.09,WNW,299,0.0,0.0,77,0.00,,---,0.00,VWS V14.01,2013-03-11 00:51:00,
2013-03-10 20:52:00,65.4,58.0,30.09,WNW,299,0.0,0.0,77,0.00,,---,0.00,VWS V14.01,2013-03-11 00:52:00,
2013-03-10 20:53:00,65.4,58.0,30.09,WNW,299,0.0,0.0,77,0.00,,---,0.00,VWS V14.01,2013-03-11 00:53:00,
2013-03-10 20:55:00,65.3,57.9,30.08,WNW,299,0.0,0.0,77,0.00,,---,0.00,VWS V14.01,2013-03-11 00:55:00,
2013-03-10 20:57:00,65.3,57.9,30.09,WNW,299,0.0,0.0,77,0.00,,---,0.00,VWS V14.01,2013-03-11 00:57:00,
2013-03-10 20:58:00,65.3,57.9,30.09,WNW,299,1.0,1.0,77,0.00,,---,0.00,VWS V14.01,2013-03-11 00:58:00,
2013-03-10 20:59:00,65.3,57.9,30.09,WNW,299,0.0,1.0,77,0.00,,---,0.00,VWS V14.01,2013-03-11 00:59:00,
2013-03-10 21:00:00,65.2,57.8,30.09,WNW,299,0.0,1.0,77,0.00,,---,0.00,VWS V14.01,2013-03-11 01:00:00,
2013-03-10 21:03:00,65.2,57.8,30.09,WNW,299,0.0,0.0,77,0.00,,---,0.00,VWS V14.01,2013-03-11 01:03:00,
2013-03-10 21:05:00,65.2,57.8,30.09,WNW,299,0.0,1.0,77,0.00,,---,0.00,VWS V14.01,2013-03-11 01:05:00,
2013-03-10 21:08:00,65.2,57.8,30.09,WNW,299,0.0,0.0,77,0.00,,---,0.00,VWS V14.01,2013-03-11 01:08:00,
2013-03-10 21:09:00,65.1,57.7,30.09,WNW,299,0.0,0.0,77,0.00,,---,0.00,VWS V14.01,2013-03-11 01:09:00,
2013-03-10 21:11:00,65.1,57.7,30.09,WNW,299,0.0,0.0,77,0.00,,---,0.00,VWS V14.01,2013-03-11 01:11:00,
2013-03-10 21:13:00,65.1,57.7,30.09,WNW,299,0.0,0.0,77,0.00,,---,0.00,VWS V14.01,2013-03-11 01:13:00,
2013-03-10 21:14:00,65.1,57.7,30.09,WNW,299,0.0,0.0,77,0.00,,---,0.00,VWS V14.01,2013-03-11 01:14:00,
2013-03-10 21:17:00,65.1,58.1,30.09,WNW,299,0.0,0.0,78,0.00,,---,0.00,VWS V14.01,2013-03-11 01:17:00,
2013-03-10 21:18:00,65.0,57.6,30.09,WNW,299,0.0,0.0,77,0.00,,---,0.00,VWS V14.01,2013-03-11 01:18:00,
2013-03-10 21:20:00,65.0,58.0,30.09,WNW,299,0.0,0.0,78,0.00,,---,0.00,VWS V14.01,2013-03-11 01:20:00,
2013-03-10 21:22:00,65.0,58.0,30.10,WNW,299,0.0,0.0,78,0.00,,---,0.00,VWS V14.01,2013-03-11 01:22:00,
2013-03-10 21:24:00,64.9,57.9,30.10,WNW,299,0.0,0.0,78,0.00,,---,0.00,VWS V14.01,2013-03-11 01:24:00,
2013-03-10 21:26:00,64.9,57.5,30.10,WNW,299,0.0,0.0,77,0.00,,---,0.00,VWS V14.01,2013-03-11 01:26:00,
2013-03-10 21:27:00,64.9,57.5,30.10,WNW,299,0.0,0.0,77,0.00,,---,0.00,VWS V14.01,2013-03-11 01:27:00,
2013-03-10 21:29:00,64.9,57.5,30.10,WNW,299,0.0,0.0,77,0.00,,---,0.00,VWS V14.01,2013-03-11 01:29:00,
2013-03-10 21:30:00,64.9,57.9,30.10,WNW,299,0.0,0.0,78,0.00,,---,0.00,VWS V14.01,2013-03-11 01:30:00,
2013-03-10 21:32:00,64.8,57.8,30.10,WNW,299,0.0,0.0,78,0.00,,---,0.00,VWS V14.01,2013-03-11 01:32:00,
2013-03-10 21:34:00,64.8,57.8,30.10,WNW,299,0.0,0.0,78,0.00,,---,0.00,VWS V14.01,2013-03-11 01:34:00,
2013-03-10 21:37:00,64.7,57.7,30.10,WNW,299,1.0,1.0,78,0.00,,---,0.00,VWS V14.01,2013-03-11 01:37:00,
2013-03-10 21:39:00,64.7,57.3,30.10,WNW,299,0.0,1.0,77,0.00,,---,0.00,VWS V14.01,2013-03-11 01:39:00,
2013-03-10 21:42:00,64.7,57.7,30.10,WNW,299,0.0,0.0,78,0.00,,---,0.00,VWS V14.01,2013-03-11 01:42:00,
2013-03-10 21:43:00,64.6,57.6,30.10,WNW,299,0.0,0.0,78,0.00,,---,0.00,VWS V14.01,2013-03-11 01:43:00,
2013-03-10 21:44:00,64.6,57.6,30.10,WNW,299,0.0,0.0,78,0.00,,---,0.00,VWS V14.01,2013-03-11 01:44:00,
2013-03-10 21:45:00,64.6,57.6,30.10,WNW,299,0.0,0.0,78,0.00,,---,0.00,VWS V14.01,2013-03-11 01:45:00,
2013-03-10 21:47:00,64.5,57.8,30.10,WNW,299,0.0,0.0,79,0.00,,---,0.00,VWS V14.01,2013-03-11 01:47:00,
2013-03-10 21:49:00,64.5,57.8,30.10,WNW,299,0.0,0.0,79,0.00,,---,0.00,VWS V14.01,2013-03-11 01:49:00,
2013-03-10 21:51:00,64.4,57.4,30.10,WNW,299,0.0,0.0,78,0.00,,---,0.00,VWS V14.01,2013-03-11 01:51:00,
2013-03-10 21:52:00,64.4,57.8,30.10,WNW,299,0.0,1.0,79,0.00,,---,0.00,VWS V14.01,2013-03-11 01:52:00,
2013-03-10 21:55:00,64.3,57.7,30.10,WNW,299,0.0,1.0,79,0.00,,---,0.00,VWS V14.01,2013-03-11 01:55:00,
2013-03-10 21:56:00,64.3,57.7,30.10,WNW,299,0.0,0.0,79,0.00,,---,0.00,VWS V14.01,2013-03-11 01:56:00,
2013-03-10 21:59:00,64.3,57.7,30.10,WNW,299,0.0,0.0,79,0.00,,---,0.00,VWS V14.01,2013-03-11 01:59:00,
2013-03-10 22:00:00,64.2,57.6,30.10,WNW,299,0.0,0.0,79,0.00,,---,0.00,VWS V14.01,2013-03-11 02:00:00,
2013-03-10 22:01:00,64.3,57.7,30.10,WNW,299,0.0,0.0,79,0.00,,---,0.00,VWS V14.01,2013-03-11 02:01:00,
2013-03-10 22:03:00,64.3,57.7,30.10,WNW,299,0.0,0.0,79,0.00,,---,0.00,VWS V14.01,2013-03-11 02:03:00,
2013-03-10 22:05:00,64.2,57.6,30.10,WNW,299,0.0,0.0,79,0.00,,---,0.00,VWS V14.01,2013-03-11 02:05:00,
2013-03-10 22:06:00,64.2,57.6,30.10,WNW,299,0.0,0.0,79,0.00,,---,0.00,VWS V14.01,2013-03-11 02:06:00,
2013-03-10 22:08:00,64.2,57.6,30.10,WNW,299,0.0,0.0,79,0.00,,---,0.00,VWS V14.01,2013-03-11 02:08:00,
2013-03-10 22:11:00,64.2,57.6,30.10,WNW,299,0.0,0.0,79,0.00,,---,0.00,VWS V14.01,2013-03-11 02:11:00,
2013-03-10 22:12:00,64.2,57.6,30.11,WNW,299,0.0,0.0,79,0.00,,---,0.00,VWS V14.01,2013-03-11 02:12:00,
2013-03-10 22:13:00,64.2,57.6,30.11,WNW,299,0.0,0.0,79,0.00,,---,0.00,VWS V14.01,2013-03-11 02:13:00,
2013-03-10 22:17:00,64.1,57.8,30.11,WNW,299,0.0,0.0,80,0.00,,---,0.00,VWS V14.01,2013-03-11 02:17:00,
2013-03-10 22:18:00,64.1,57.5,30.11,WNW,299,0.0,0.0,79,0.00,,---,0.00,VWS V14.01,2013-03-11 02:18:00,
2013-03-10 22:20:00,64.1,57.5,30.11,WNW,299,0.0,0.0,79,0.00,,---,0.00,VWS V14.01,2013-03-11 02:20:00,
2013-03-10 22:22:00,64.1,57.5,30.11,WNW,299,0.0,0.0,79,0.00,,---,0.00,VWS V14.01,2013-03-11 02:22:00,
2013-03-10 22:23:00,64.1,57.5,30.11,WNW,299,0.0,0.0,79,0.00,,---,0.00,VWS V14.01,2013-03-11 02:23:00,
2013-03-10 22:25:00,64.0,57.0,30.11,WNW,299,0.0,1.0,78,0.00,,---,0.00,VWS V14.01,2013-03-11 02:25:00,
2013-03-10 22:27:00,64.0,57.4,30.11,WNW,299,0.0,0.0,79,0.00,,---,0.00,VWS V14.01,2013-03-11 02:27:00,
2013-03-10 22:30:00,64.0,57.4,30.11,WNW,299,0.0,0.0,79,0.00,,---,0.00,VWS V14.01,2013-03-11 02:30:00,
2013-03-10 22:31:00,64.0,57.4,30.11,WNW,299,0.0,0.0,79,0.00,,---,0.00,VWS V14.01,2013-03-11 02:31:00,
2013-03-10 22:32:00,64.0,57.0,30.11,WNW,299,0.0,0.0,78,0.00,,---,0.00,VWS V14.01,2013-03-11 02:32:00,
2013-03-10 22:35:00,64.0,57.0,30.11,WNW,299,0.0,0.0,78,0.00,,---,0.00,VWS V14.01,2013-03-11 02:35:00,
2013-03-10 22:36:00,64.0,57.0,30.11,WNW,299,0.0,0.0,78,0.00,,---,0.00,VWS V14.01,2013-03-11 02:36:00,
2013-03-10 22:37:00,64.0,57.0,30.11,WNW,299,0.0,0.0,78,0.00,,---,0.00,VWS V14.01,2013-03-11 02:37:00,
2013-03-10 22:39:00,64.0,57.0,30.11,WNW,299,0.0,0.0,78,0.00,,---,0.00,VWS V14.01,2013-03-11 02:39:00,
2013-03-10 22:42:00,64.0,56.7,30.11,WNW,299,0.0,0.0,77,0.00,,---,0.00,VWS V14.01,2013-03-11 02:42:00,
2013-03-10 22:43:00,64.0,57.0,30.11,WNW,299,0.0,0.0,78,0.00,,---,0.00,VWS V14.01,2013-03-11 02:43:00,
2013-03-10 22:45:00,64.0,57.0,30.11,WNW,299,0.0,0.0,78,0.00,,---,0.00,VWS V14.01,2013-03-11 02:45:00,
2013-03-10 22:48:00,64.0,56.7,30.11,WNW,299,0.0,0.0,77,0.00,,---,0.00,VWS V14.01,2013-03-11 02:48:00,
2013-03-10 22:49:00,64.0,56.7,30.11,WNW,299,0.0,0.0,77,0.00,,---,0.00,VWS V14.01,2013-03-11 02:49:00,
2013-03-10 22:50:00,64.0,56.7,30.10,WNW,299,0.0,0.0,77,0.00,,---,0.00,VWS V14.01,2013-03-11 02:50:00,
2013-03-10 22:54:00,64.0,57.0,30.10,WNW,299,0.0,0.0,78,0.00,,---,0.00,VWS V14.01,2013-03-11 02:54:00,
2013-03-10 22:55:00,64.0,57.0,30.10,WNW,299,0.0,0.0,78,0.00,,---,0.00,VWS V14.01,2013-03-11 02:55:00,
2013-03-10 22:57:00,63.9,56.9,30.10,WNW,299,0.0,1.0,78,0.00,,---,0.00,VWS V14.01,2013-03-11 02:57:00,
2013-03-10 23:00:00,63.9,56.6,30.10,WNW,299,0.0,1.0,77,0.00,,---,0.00,VWS V14.01,2013-03-11 03:00:00,
2013-03-10 23:01:00,63.9,56.6,30.10,WNW,299,0.0,0.0,77,0.00,,---,0.00,VWS V14.01,2013-03-11 03:01:00,
2013-03-10 23:02:00,63.9,56.9,30.10,WNW,299,0.0,0.0,78,0.00,,---,0.00,VWS V14.01,2013-03-11 03:02:00,
2013-03-10 23:06:00,63.8,56.8,30.10,WNW,299,0.0,0.0,78,0.00,,---,0.00,VWS V14.01,2013-03-11 03:06:00,
2013-03-10 23:07:00,63.8,56.8,30.10,WNW,299,0.0,0.0,78,0.00,,---,0.00,VWS V14.01,2013-03-11 03:07:00,
2013-03-10 23:09:00,63.8,56.8,30.10,WNW,299,0.0,1.0,78,0.00,,---,0.00,VWS V14.01,2013-03-11 03:09:00,
2013-03-10 23:12:00,63.8,56.8,30.10,WNW,299,0.0,0.0,78,0.00,,---,0.00,VWS V14.01,2013-03-11 03:12:00,
2013-03-10 23:13:00,63.7,56.7,30.10,WNW,299,0.0,1.0,78,0.00,,---,0.00,VWS V14.01,2013-03-11 03:13:00,
2013-03-10 23:15:00,63.7,56.7,30.10,WNW,299,1.0,1.0,78,0.00,,---,0.00,VWS V14.01,2013-03-11 03:15:00,
2013-03-10 23:17:00,63.7,56.7,30.10,WNW,299,0.0,0.0,78,0.00,,---,0.00,VWS V14.01,2013-03-11 03:17:00,
2013-03-10 23:18:00,63.7,57.1,30.10,WNW,299,0.0,0.0,79,0.00,,---,0.00,VWS V14.01,2013-03-11 03:18:00,
2013-03-10 23:21:00,63.6,57.0,30.10,WNW,299,0.0,0.0,79,0.00,,---,0.00,VWS V14.01,2013-03-11 03:21:00,
2013-03-10 23:23:00,63.6,57.0,30.10,WNW,299,0.0,0.0,79,0.00,,---,0.00,VWS V14.01,2013-03-11 03:23:00,
2013-03-10 23:26:00,63.6,57.3,30.11,WNW,299,0.0,0.0,80,0.00,,---,0.00,VWS V14.01,2013-03-11 03:26:00,
2013-03-10 23:28:00,63.5,57.2,30.11,ENE,57,1.0,3.0,80,0.00,,---,0.00,VWS V14.01,2013-03-11 03:28:00,
2013-03-10 23:29:00,63.5,57.2,30.10,ENE,57,0.0,3.0,80,0.00,,---,0.00,VWS V14.01,2013-03-11 03:29:00,
2013-03-10 23:32:00,63.5,57.2,30.11,ENE,68,0.0,4.0,80,0.00,,---,0.00,VWS V14.01,2013-03-11 03:32:00,
2013-03-10 23:34:00,63.6,57.7,30.11,ENE,71,0.0,4.0,81,0.00,,---,0.00,VWS V14.01,2013-03-11 03:34:00,
2013-03-10 23:35:00,63.6,57.7,30.11,East,81,1.0,4.0,81,0.00,,---,0.00,VWS V14.01,2013-03-11 03:35:00,
2013-03-10 23:37:00,63.8,57.9,30.11,ENE,68,1.0,4.0,81,0.00,,---,0.00,VWS V14.01,2013-03-11 03:37:00,
2013-03-10 23:40:00,64.0,57.7,30.11,NE,46,3.0,4.0,80,0.00,,---,0.00,VWS V14.01,2013-03-11 03:40:00,
2013-03-10 23:42:00,64.2,57.9,30.10,NE,54,1.0,2.0,80,0.00,,---,0.00,VWS V14.01,2013-03-11 03:42:00,
2013-03-10 23:45:00,64.5,57.8,30.11,East,89,1.0,5.0,79,0.00,,---,0.00,VWS V14.01,2013-03-11 03:45:00,
2013-03-10 23:46:00,64.6,58.0,30.11,East,89,0.0,5.0,79,0.00,,---,0.00,VWS V14.01,2013-03-11 03:46:00,
2013-03-10 23:48:00,64.8,57.8,30.10,SSE,153,1.0,5.0,78,0.00,,---,0.00,VWS V14.01,2013-03-11 03:48:00,
2013-03-10 23:50:00,64.9,57.9,30.10,SE,125,2.0,5.0,78,0.00,,---,0.00,VWS V14.01,2013-03-11 03:50:00,
2013-03-10 23:51:00,64.9,57.9,30.10,SE,125,1.0,5.0,78,0.00,,---,0.00,VWS V14.01,2013-03-11 03:51:00,
2013-03-10 23:53:00,65.1,58.1,30.10,East,100,2.0,5.0,78,0.00,,---,0.00,VWS V14.01,2013-03-11 03:53:00,
2013-03-10 23:55:00,65.2,57.8,30.10,ENE,65,5.0,5.0,77,0.00,,---,0.00,VWS V14.01,2013-03-11 03:55:00,
2013-03-10 23:57:00,65.3,57.9,30.10,ENE,67,2.0,2.0,77,0.00,,---,0.00,VWS V14.01,2013-03-11 03:57:00,
2013-03-10 23:58:00,65.3,57.9,30.10,East,82,1.0,2.0,77,0.00,,---,0.00,VWS V14.01,2013-03-11 03:58:00,